GFSGL_prec_radar_000.txt.gz
Reflectivity
-20 -20 -20 -20 -20 -20 -20 -20 -20 -20 -20 -20 -20 -20 -6 -14 4 -15 -15 -16 -12 -14 -2 -4 -9 -13 -20 -20 -20 -20 -20 -20 -20 -20 -20 -20 -20 -20 -20 -20 -20 -20 -20
-20 -20 -20 -20 -20 -20 -20 -20 -20 -20 -20 -20 -18 13 13 -11 -20 -20 -20 -20 -20 -20 -20 -20 -20 -20 -20 -20 -20 -20 -20 -20 -20 -20 -20 -20 -20 -20 -20 -20 -20 -20 -20
-20 -20 -20 -20 -20 -20 -20 -20 -20 -20 -20 -20 1 -7 -17 -20 -20 -20 -20 -20 -20 -20 -20 -20 -20 -20 -20 -20 -20 -20 -20 -20 -20 -20 -20 -20 -20 -20 -20 -20 -20 -20 -20
-20 -20 -20 -20 -20 -20 -20 -20 -20 -16 -20 -5 -11 -17 -20 -20 -20 -20 -20 -20 -20 -20 -20 -20 -20 -20 -20 -20 -20 -20 -20 -20 -20 -20 -20 -20 -20 -20 -20 -20 -20 -20 -20
-20 -20 -20 -20 -20 -20 -20 -20 -20 -4 12 7 -4 5 7 2 -17 -20 -20 -20 -20 -20 -20 -20 -20 -20 -20 -20 -20 -20 -20 -20 -6 5 -2 -20 -20 -20 -20 -20 -20 -20 -20
-20 -20 -20 -20 -2 17 -20 -8 -8 8 9 -12 -19 -20 -20 -20 -20 -20 -20 -20 -20 -20 -20 -20 -20 -20 -20 -20 -20 -20 -20 4 -12 -0 -20 -20 -20 -20 -20 -20 -20 -20 -20
-20 -20 -20 -20 -20 -11 -20 -20 -20 -20 -20 -20 -20 -20 -20 -20 -20 -20 -20 -20 -20 -20 -20 -20 -20 -20 -20 -20 -20 -4 -7 -20 -10 6 10 6 -18 -20 -20 -20 -20 -20 -20
-20 -20 -20 -20 -20 -20 -20 -20 -20 -20 -20 -20 -20 -20 -20 -20 -20 -20 -20 -20 -20 -20 -20 -20 -20 -20 -20 -11 -13 -18 -19 -14 -20 -20 -20 -20 -20 -20 -20 -20 -20 -20 -20
-20 -20 -20 -20 -20 -20 -20 -20 -20 -20 -20 -20 -20 -20 -20 -20 -20 -20 -20 -20 -20 -20 -20 -20 -20 -20 -20 1 -7 -15 -20 -20 -20 -17 12 1 -20 -20 -20 -20 -4 9 -1
-20 -20 -20 -20 -20 -20 -20 -20 -20 -20 -20 -20 -20 -20 -20 -20 -20 -20 -20 -20 -10 -20 -20 -20 -20 -20 -7 9 8 6 -18 -20 -19 -20 -20 -20 10 13 -0 -5 0 11 1
-20 -20 -20 -20 -20 -20 -20 -20 -20 -20 -20 -20 -20 -20 -20 -20 -20 -20 -20 -1 -20 -20 -20 -20 -20 -10 2 4 1 -18 -6 -11 -4 8 -20 -20 -17 -20 -20 -13 -16 3 8
-20 -20 -20 -20 -20 -20 -20 -20 -20 -20 -20 -20 -20 -20 -20 -20 -20 -20 -20 -19 -4 1 -20 -20 -20 -20 -20 -2 -8 -3 -4 -15 -20 -4 -20 -20 -20 -20 -20 -20 -20 -20 -20
-20 -20 -20 -20 -20 -20 -20 -20 -20 -20 -20 -20 -20 -20 -20 -20 -20 -20 -20 -17 3 -20 4 4 -4 -20 -20 -20 -20 -6 -20 -20 -20 -4 -18 -20 -20 -20 -4 -1 -5 -15 -20
-20 -20 -20 -20 -20 -20 -20 -20 -20 -20 -20 -20 -20 -20 -20 -20 -20 -20 5 -20 -20 2 -11 -20 -20 -20 -20 -20 -20 -20 -20 -20 -20 -20 -20 -20 -14 -2 -9 -15 -16 -20 8
-20 -20 -20 -20 -20 -20 -20 -20 -20 -20 -20 -20 -20 -16 -1 -20 -20 13 8 6 12 4 -3 -15 -20 -20 -20 -20 -20 -20 -20 -20 -20 -8 -17 -20 -20 -20 -20 -20 -20 -13 -6
-20 -20 -20 -20 -20 -20 -20 -20 -20 -20 -20 -20 -20 -20 -2 3 10 9 6 9 10 2 -10 -19 -17 -20 -20 -20 -20 -20 -20 -20 -20 -13 -10 -20 -20 -20 -20 -20 -20 -20 -20
-20 -20 -20 -20 -20 -20 -20 -20 -20 -20 -20 -20 -20 -20 -3 1 7 5 1 8 7 3 -9 -15 -20 -20 -20 -20 -20 -20 -20 -20 -20 -20 -20 -20 -20 -20 -20 -20 -20 -20 -8
-20 -20 -20 -20 -20 -20 -20 -20 -20 -20 -20 -20 -20 -20 -20 1 3 1 -4 5 3 -5 -5 -4 -20 -20 -20 -20 -20 -20 -20 -20 -20 -20 -20 -20 -20 -20 -20 -20 -20 -20 -18
-20 -20 -20 -20 -20 -20 -20 -20 -20 -20 -20 -20 -20 -20 -20 -20 -17 -9 -12 -13 -4 -13 -3 -8 -20 -20 -20 -20 -20 -20 -20 -20 -20 -20 -20 -20 -20 -20 -20 -20 -20 -20 -20
-20 -20 -20 -20 -20 -20 -20 -20 -20 -20 -20 -20 -20 -20 -20 -20 -20 -20 -20 -20 -20 -16 -18 -20 -20 -20 -20 -20 -20 -20 -20 -20 -20 -20 -20 -20 -20 -20 -20 -20 -20 -20 -20
-20 -20 -20 -20 -20 -20 -20 -20 -20 -20 -20 -20 -20 -20 -20 -20 -20 -20 -20 -20 -20 -20 -20 -20 -20 -20 -20 -20 -20 -20 -20 -20 -20 -20 -20 -20 -20 -20 -20 -20 -20 -20 -20
-20 -20 -20 -20 -20 -20 -20 -20 -20 -20 -20 -20 -20 -20 -20 -20 -20 -20 -20 -20 -20 -20 -20 -20 -20 -20 -20 -20 -20 -20 -20 -20 -20 -20 -20 -20 -20 -20 -20 -20 -20 -20 -20
-20 -20 -20 -20 -20 -20 -20 -20 -20 -20 -20 -20 -20 -20 -20 -20 -20 -20 -20 -20 -20 -20 -20 -20 -20 -20 -20 -20 -20 -20 -20 -20 -20 -20 -20 -20 -20 -20 -20 -20 -20 -20 -20
-20 -20 -20 -20 -20 -20 -20 -20 -20 -20 -20 -20 -20 -20 -20 -20 -20 -20 -20 -20 -20 -20 -20 -20 -20 -20 -20 -20 -20 -20 -20 -20 -20 -20 -20 -20 -20 -20 -20 -20 -20 -20 -20
-20 -20 -20 -20 -20 -20 -20 -20 -20 -20 -20 -20 -20 -20 -20 -20 -20 -20 -20 -20 -20 -20 -20 -20 -20 -20 -20 -20 -20 -20 -20 -20 -20 -20 -20 -20 -20 -20 -20 -20 -20 -20 -20
-20 -20 -20 -20 -20 -20 -20 -20 -20 -20 -20 -20 -20 -20 -20 -20 -20 -20 -20 -20 -20 -20 -20 -20 -20 -20 -20 -20 -20 -20 -20 -20 -20 -20 -20 -20 -20 -20 -20 -20 -20 -20 -20

GFSGL_prec_radar_003.txt.gz
Reflectivity
-20 -20 -20 -20 -20 -20 -20 -20 -20 -20 -20 -20 -20 -19 2 10 25 25 12 13 6 -4 -20 -19 -20 -18 -20 -20 -20 -20 -20 -20 -20 -20 -20 -20 -20 -20 -20 -20 -20 -20 -20
-20 -20 -20 -20 -20 -20 -20 -20 -20 -20 -20 -20 -19 -18 18 22 8 6 -3 -6 -20 -20 -20 -20 -20 -20 -20 -20 -20 -20 -20 -20 -20 -20 -20 -20 -20 -20 -20 -20 -20 -20 -20
-20 -20 -20 -20 -20 -20 -20 -20 -20 -20 -20 -20 -9 7 -19 -20 -20 -20 -20 -20 -20 -20 -20 -20 -20 -20 -20 -20 -20 -20 -20 -20 -20 -20 -20 -20 -20 -20 -20 -20 -20 -20 -20
-20 -20 -20 -20 -20 -20 -20 -20 -8 -18 -18 -20 -17 -5 -20 -20 -20 -20 -20 -20 -20 -20 -20 -20 -20 -20 -20 -20 -20 -20 -20 -20 -20 -20 -20 -20 -20 -20 -20 -20 -20 -20 -20
-20 -20 -20 -20 -15 -13 -1 -7 -12 -1 -15 -20 -20 -20 -20 -20 -20 -20 -20 -20 -20 -20 -20 -20 -20 -20 -20 -20 -20 -20 -20 -20 -20 -5 -4 -10 -9 -3 -13 -20 -20 -20 -20
-20 -20 -20 -20 -20 -20 -20 -20 -20 -20 -20 -20 -20 -20 -20 -20 -20 -20 -20 -20 -20 -20 -20 -20 -20 -20 -20 -20 -20 -20 -20 -3 -1 1 -0 -2 -15 -5 -5 -3 -20 -2 -20
-20 -20 -20 -20 -20 -20 -20 -20 -20 -20 -20 -20 -20 -20 -20 -20 -20 -20 -20 -20 -20 -20 -20 -20 -20 -20 -20 -20 -16 -6 4 5 -15 6 10 7 3 1 -0 1 5 3 1
-20 -20 -20 -20 -20 -20 -20 -20 -20 -20 -20 -20 -20 -20 -20 -20 -20 -20 -20 -20 -20 -20 -20 -20 -20 -20 -20 -3 -11 0 3 4 4 -2 2 1 2 3 3 6 4 6 4
-20 -20 -20 -20 -20 -20 -20 -20 -20 -20 -20 -20 -20 -20 -20 -20 -20 -20 -20 -18 -1 -14 -20 -20 -14 -3 -1 -2 1 5 10 4 -9 -20 -20 -18 -20 -20 -16 10 13 11 10
-18 -20 -20 -20 -20 -20 -20 -20 -20 -20 -20 -20 -20 -20 -20 -20 -20 -20 -19 1 3 2 0 2 -18 -20 -20 3 15 12 12 8 10 15 10 -1 -18 6 6 -3 16 14 10
-20 -20 -20 -20 -20 -20 -20 -20 -20 -20 -20 -20 -20 -20 -20 -20 -20 -20 -20 3 4 4 6 2 4 -11 4 -3 1 8 7 4 9 11 10 7 8 10 8 11 14 18 15
-20 -20 -20 -20 -20 -20 -20 -20 -20 -20 -20 -20 -20 -20 -20 -19 -9 -20 -20 1 5 14 8 3 16 -19 -20 -20 -14 -1 5 -1 0 -1 4 3 4 8 3 1 2 12 15
-20 -20 -20 -20 -20 -20 -20 -20 -20 -20 -20 -20 -20 -20 -20 -4 -0 -20 -20 6 1 6 12 -2 -20 -20 -20 -20 -20 -18 -20 -1 -1 0 -1 -10 1 3 8 15 11 7 5
-20 -20 -20 -20 -20 -20 -20 -20 -20 -20 -20 -17 0 2 -0 -1 2 3 8 6 -6 11 12 3 -17 -19 -19 -20 -17 -20 -4 -1 -1 -2 -3 -11 -1 7 8 8 11 12 14
-20 -20 -20 -20 -20 -20 -20 -20 -20 -20 -20 -11 -1 3 6 4 5 13 10 7 11 3 3 1 0 6 -19 -20 -11 -20 -19 -20 -17 -2 -4 -6 -3 -3 1 6 8 11 12
-20 -20 -20 -20 -20 -20 -20 -20 -20 -20 -20 -20 -20 -9 1 4 9 7 3 6 2 -4 0 2 7 4 -20 -3 -2 -2 -20 -12 -20 -20 -20 -20 -20 -2 -2 -8 -0 7 12
-20 -20 -20 -20 -20 -20 -20 -20 -20 -20 -20 -20 -20 -20 -8 1 6 3 -1 -2 -1 1 0 3 4 5 -20 -3 -20 -4 -1 -1 -13 -20 -20 -20 -20 -18 -3 -3 -4 -1 3
-20 -20 -20 -20 -20 -20 -20 -20 -20 -20 -20 -20 -20 -20 -20 -3 0 -1 -5 -5 -0 1 1 -0 -8 -20 -20 -20 -20 -20 -2 1 -2 -19 -20 -20 -20 -2 -16 -20 -2 0 2
-20 -20 -20 -20 -20 -20 -20 -20 -20 -20 -20 -20 -20 -20 -20 -20 -20 -13 -20 -20 -6 -0 0 -2 -12 -20 -20 -20 -2 -20 -1 1 0 0 -4 -20 -20 -20 -4 -2 -1 -20 -18
-20 -20 -20 -20 -20 -20 -20 -20 -20 -20 -20 -20 -20 -20 -20 -20 -16 -6 -20 -20 -20 -20 -19 -20 -20 -20 -20 -20 -2 -1 -3 -1 -1 -14 -1 1 -20 -20 -6 -1 -16 -5 -20
-20 -20 -20 -20 -20 -20 -20 -20 -20 -20 -20 -20 -20 -20 -20 -20 -1 0 -3 -20 -20 -20 -20 -20 -20 -20 -20 -20 -20 -20 -20 -8 -13 -5 -1 1 -0 -20 -2 0 0 -1 -4
-20 -20 -20 -20 -20 -20 -20 -20 -20 -20 -20 -20 -20 -20 -20 -20 -16 -3 -20 -20 -20 -20 -20 -20 -20 -20 -20 -20 -20 -11 -20 -20 -20 -20 -5 -20 -20 -20 -1 -12 -2 -20 -20
-20 -20 -20 -20 -20 -20 -20 -20 -20 -20 -20 -20 -20 -20 -20 -20 -20 -3 -12 -20 -20 -20 -20 -20 -20 -20 -20 -20 -20 -20 -20 -20 -20 -20 -20 -20 -20 -20 0 0 -20 -20 -20
-20 -20 -20 -20 -20 -20 -20 -20 -20 -20 -20 -20 -20 -20 -20 -20 -20 -20 -20 -20 -20 -20 -20 -20 -20 -20 -20 -20 -20 -20 -20 -20 -20 -20 -20 -20 -20 -20 -20 -20 -20 -20 -20
-20 -20 -20 -20 -20 -20 -20 -20 -20 -20 -20 -20 -20 -20 -20 -20 -20 -20 -20 -20 -20 -20 -20 -20 -20 -20 -20 -20 -20 -20 -20 -20 -20 -20 -20 -20 -20 -20 -20 -20 -20 -20 -20
-20 -20 -2 -20 -20 -20 -20 -20 -20 -20 -20 -20 -20 -20 -20 -20 -20 -20 -20 -20 -20 -20 -20 -20 -20 -20 -20 -20 -20 -20 -20 -20 -20 -20 -20 -20 -20 -20 -20 -20 -20 -20 -20

GFSGL_prec_radar_006.txt.gz
Reflectivity
-20 -20 -20 -20 -20 -20 -20 -20 -20 -20 -20 -20 -20 -20 -12 4 12 21 13 5 -12 -20 -20 -20 -20 -20 -20 -20 -20 -20 -20 -20 -20 -20 -20 -20 -20 -20 -20 -20 -20 -20 -20
-20 -20 -20 -20 -20 -20 -20 -20 -20 7 7 10 8 -6 0 8 19 13 -1 3 -20 -20 -20 -20 -20 -20 -20 -20 -20 -20 -20 -20 -20 -20 -20 -20 -20 -20 -20 -20 -20 -20 -20
-20 -20 -20 -20 -20 -19 3 6 13 20 17 13 18 14 12 11 16 10 -6 -16 -20 -20 -20 -20 -20 -20 -20 -20 -20 -20 -20 -20 -20 -4 -20 -20 -20 -20 -20 -20 -4 -0 -20
-20 -20 -20 -20 6 5 -9 -6 -7 -4 2 2 -15 -16 -19 -20 -20 -20 -20 -20 -20 -20 -20 -20 -20 -20 -20 -20 -20 -20 -20 -20 -20 -20 -20 -20 -20 -20 -20 -20 -20 -20 -20
-20 -20 -20 -20 -18 -16 -16 -17 -20 -20 -20 -20 -20 -20 -20 -20 -20 -20 -20 -20 -20 -20 -20 -20 -20 -20 -20 -20 -20 -20 -20 -20 -20 -20 -20 -20 -20 -20 -20 -20 -20 -20 -20
-20 -20 -20 -20 -20 -20 -20 -20 -20 -20 -20 -20 -20 -20 -20 -20 -20 -20 -20 -20 -20 -20 -20 -20 -20 -20 -20 -20 -20 -20 -20 -20 -6 -3 -5 -2 -20 -20 -5 -4 3 -20 4
-20 -20 -20 -4 -20 -20 -20 -20 -20 -20 -20 -20 -20 -20 -20 -20 -20 -20 -20 -20 -20 -20 -20 -20 -20 -20 -20 -19 -8 -18 -20 -20 -20 -0 4 2 -3 -16 -11 -2 6 6 -8
-20 -20 -1 -20 -20 -20 -20 -20 -20 -20 -20 -20 -20 -20 -20 -20 -20 -20 -20 -20 -20 -7 -3 -13 -20 -18 -20 -18 -2 -3 -4 -3 6 6 4 1 -8 -14 3 7 8 12 10
-20 -20 -18 -20 -20 -20 -20 -20 -20 -20 -20 -20 -20 -20 -20 -20 -20 -20 -20 -8 -1 -1 -3 -4 -2 -7 -4 -14 7 12 11 6 2 -5 -20 -20 -15 -20 -17 7 16 8 15
-20 -20 -20 -20 -20 -20 -20 -20 -20 -20 -20 -20 -20 -18 -20 -0 -7 1 1 3 6 7 6 4 -17 4 2 -15 14 14 11 6 5 11 10 16 12 -17 -20 -11 13 13 14
-20 -20 -20 -20 -20 -20 -20 -20 -20 -20 -15 -8 7 3 6 -4 1 2 5 2 12 10 7 9 9 11 -15 -20 -20 1 6 -1 -0 2 6 6 5 11 15 5 12 16 13
-20 -20 -20 -20 -20 -20 -20 -20 -20 1 -4 -20 7 7 -2 -12 -7 2 2 7 11 14 12 9 21 -15 -20 -20 -15 -19 -20 -7 2 9 11 7 6 6 8 12 11 12 13
-20 -20 -20 -20 -20 -20 -20 1 -17 -3 -20 4 -1 0 -1 -3 -6 -14 9 8 6 8 16 13 -20 -20 -20 -18 -17 -20 -20 11 9 7 8 9 8 7 9 13 13 12 12
-13 -20 -20 -20 -20 -20 -20 -4 -20 -5 -6 -2 -3 -3 1 -0 -9 7 9 7 8 11 3 18 -4 -6 -1 4 5 8 6 7 2 1 4 0 0 3 12 13 13 17 15
-18 -20 -20 -20 -20 -20 -20 -20 -20 -17 -18 -20 -20 -2 6 5 5 12 9 8 9 5 1 9 4 7 11 6 4 4 3 0 5 2 2 3 2 2 12 10 12 15 17
-20 -20 -20 -20 -1 -7 -20 -20 -20 -20 -20 -20 -20 -8 -2 2 6 6 4 3 1 -15 8 3 8 10 9 4 3 5 5 3 1 3 5 3 1 -1 5 8 -14 11 16
-20 -20 -20 -20 1 -20 -20 -2 0 -20 -20 -20 -20 -20 -5 2 2 2 -1 -2 -3 -19 2 4 6 6 8 -1 2 5 4 3 5 3 6 2 -2 -20 6 10 12 2 -4
-20 -20 -9 -4 -0 -0 -0 -0 1 1 3 2 -16 -20 -13 0 -0 -0 -6 -8 -6 -13 -1 1 1 3 -1 -1 1 4 6 6 3 2 1 0 -2 -2 -19 -2 6 7 14
-3 -0 -6 1 2 -20 -1 -0 0 1 2 -1 -14 -20 -7 -3 -4 -1 -1 2 -0 -1 -3 -1 1 2 1 1 4 3 8 5 4 7 3 1 1 1 -7 -5 -2 -8 -11
-19 -19 -20 1 1 -2 -7 1 0 0 -0 1 -14 -3 -2 1 2 4 3 2 -16 -20 -20 -17 -1 1 3 4 4 5 1 2 -0 2 5 4 2 7 -6 -9 -9 1 -1
-4 -8 -20 -2 -3 -1 -1 -2 0 0 1 0 -5 1 -20 2 3 3 -0 -20 -20 -20 -20 -20 -2 2 2 2 2 4 1 3 2 0 2 5 9 6 3 -2 -6 0 -0
-3 5 4 -1 0 -1 -3 -0 -1 2 1 2 0 -2 -20 3 2 2 -1 -4 -20 -20 -20 -20 -15 -3 -0 2 3 3 2 2 2 1 0 6 6 8 7 2 0 2 -1
4 8 -1 -19 1 -7 -16 -7 -6 3 3 4 3 -3 2 2 2 2 -0 -5 -20 -20 -20 -20 -20 -20 -20 -10 -4 -2 1 2 3 1 1 1 -0 -1 4 4 0 5 0
-7 8 8 5 4 1 -8 -17 -5 -10 -1 3 4 2 -1 -0 1 1 2 2 -11 -20 -20 -20 -20 -20 -20 -20 -20 -20 -20 -20 -20 -20 -4 -18 -18 -1 2 1 -0 -3 1
9 10 10 10 6 -3 -9 1 -11 3 3 1 4 3 -2 -2 -20 -6 2 2 -0 -20 -20 -20 -20 -20 -20 -20 -20 -20 -20 -20 -20 -20 -20 -20 -20 -20 -17 -2 -1 0 -1
6 9 10 10 9 4 -18 -10 -19 -6 -6 1 3 5 1 -4 -20 -20 -5 -4 -11 -20 -20 -20 -20 -20 -20 -20 -20 -20 -20 -20 -20 -20 -20 -20 -20 -20 -20 -20 -20 -9 -12

GFSGL_prec_radar_009.txt.gz
Reflectivity
-20 -20 -20 -20 -20 -20 -20 -20 -20 -20 -20 -20 -20 -20 -20 -20 3 18 13 5 14 16 -10 6 -13 -20 -20 -20 -20 -20 -15 -19 -20 -20 -20 -16 -14 -12 0 -12 -20 -20 -20
-20 -20 -20 -20 -20 -20 -20 -20 -20 5 0 14 3 1 12 19 18 22 14 16 7 6 1 4 -20 -11 -18 -20 -20 -20 -20 -20 -20 -20 -20 -20 -20 -20 -20 -20 -20 -20 -20
-20 -20 -20 -20 -20 -20 -20 -20 -20 -20 -20 -20 -20 3 -20 -20 -20 -20 -20 -20 -20 -20 -20 -20 -20 -20 -20 -20 -20 -20 -20 -20 -20 -20 -20 -20 -20 -20 -20 -20 -20 -20 -20
-20 -20 -20 -20 -20 -20 -20 -20 -20 -20 -20 -20 -20 -20 -20 -20 -20 -20 -20 -20 -20 -20 -20 -20 -20 -20 -20 -11 -20 -20 -20 -20 -20 -20 -20 -20 -20 -20 -20 -20 -20 -20 -20
-20 -20 -20 -20 -20 -20 -20 -20 -20 -20 -20 -20 -20 -20 -20 -20 -20 -20 -20 -20 -20 -20 -20 -20 -20 -16 -20 -20 -20 -20 -20 -20 -20 -20 -20 -20 -20 -20 -20 -20 -8 -20 -20
-20 -20 -20 -20 -20 -20 -20 -20 -20 -20 -20 -20 -20 -20 -20 -20 -20 -20 -20 -20 -20 -20 -20 -20 -20 -20 -20 -10 -12 -20 -20 -20 -20 -20 -20 -20 -20 -20 -20 -20 -7 -20 4
-17 -19 -20 -20 -20 -19 -20 -20 -20 -20 -20 -20 -20 -20 -20 -20 -5 -20 -20 -20 -20 -20 -20 -13 -20 -20 -20 -20 -20 -1 -7 -19 -20 -2 -1 -4 -9 -20 -4 7 -1 6 10
1 -10 -1 -20 -9 -20 -20 -20 -20 -20 -20 -20 -20 -20 -20 -19 -1 -20 -20 -20 -17 -20 -9 0 -8 -20 -20 -4 -17 -8 -6 -7 -6 5 1 -19 -3 -7 -1 -11 2 5 9
8 2 -15 -20 1 -18 -20 -20 -20 -20 -20 -20 -20 -20 -20 -20 -15 -20 -20 -2 5 2 -15 1 5 -16 -20 -20 -13 8 9 6 7 -0 -20 -20 -20 -20 -15 -14 10 18 15
22 -20 -20 -20 -20 -15 -20 -20 -20 -20 -20 -20 -20 -20 -15 1 9 -20 -20 4 8 -9 7 3 -8 5 6 -13 13 16 15 11 -7 4 8 -1 8 -15 -18 -20 -6 10 7
12 -5 -20 -7 4 -20 -20 -20 -20 -20 -15 -20 -14 -6 2 8 7 -18 -20 3 11 16 12 13 11 19 -5 -4 -10 -11 1 -4 -5 -0 2 3 -7 -9 7 5 -20 4 -1
22 2 -20 15 -11 -20 -20 -20 -20 -20 -0 -6 -9 -7 8 9 -4 -13 -20 -4 12 13 12 13 21 -7 -20 -20 -20 -20 -20 -20 -0 3 8 10 12 8 4 7 12 20 14
-20 -8 6 -3 -20 -20 -20 -20 -20 -11 -1 -20 -3 5 1 -5 -17 -14 -20 9 5 14 17 4 12 5 -8 -13 12 -20 -20 5 16 10 9 11 12 13 9 9 11 16 16
-8 3 4 -17 -18 -20 -20 -20 -20 -20 -7 -7 -20 -6 -14 -15 -19 -4 7 10 5 6 3 -2 14 6 9 10 16 14 15 14 8 11 11 6 6 10 15 8 13 12 18
-20 -13 -20 -20 -20 -20 -20 -19 -20 -20 -20 -20 -20 -20 -8 1 2 7 11 9 9 4 -12 13 7 4 7 12 13 13 13 9 10 8 11 7 9 7 8 18 1 15 17
-20 -20 -12 -20 -2 -20 -2 -7 -20 -20 -20 -20 -20 -20 -20 -7 2 4 4 3 5 -9 5 4 6 7 8 12 11 9 7 6 4 6 8 10 7 -1 4 18 7 -1 6
-20 -20 -20 -5 -17 -5 -5 -20 1 -9 -20 -20 -20 -20 -20 -20 -2 3 2 -3 6 -20 2 4 4 7 4 -7 3 4 6 9 5 8 9 7 6 0 4 6 10 16 10
-7 -18 -17 -19 -7 -5 -9 -9 2 4 4 1 -7 -20 -20 -20 -2 -1 -0 -5 0 -10 1 5 4 1 0 -3 -2 2 5 8 8 10 7 8 5 6 8 -4 -6 -20 -5
-20 -20 -14 -20 -10 -17 -11 5 5 3 1 -0 1 -20 -20 -19 -19 -13 3 2 3 -9 -13 -13 -4 -2 1 3 7 8 11 9 9 9 9 10 5 8 7 4 -17 -9 -11
-20 -20 -10 -20 -19 1 2 3 1 0 -2 -0 3 -5 -20 -7 5 7 5 -0 -9 -20 -20 -20 -5 -1 2 3 4 3 8 6 7 5 7 12 12 10 8 7 6 -1 -19
-20 -20 -20 -20 -3 -20 -19 5 -1 2 3 -0 4 -18 -20 -18 5 4 5 1 -20 -20 -7 -4 -2 -1 -2 -2 -1 4 4 4 3 3 4 6 11 10 10 8 8 8 4
-20 -14 -20 -2 -19 6 3 -19 4 -4 5 2 3 1 -20 6 4 5 4 2 -2 -20 -20 -9 -4 -14 -20 -2 -2 -1 -3 -2 -0 -4 2 0 7 5 10 8 7 9 4
1 -18 2 7 5 -13 2 7 7 7 6 6 6 4 2 2 3 3 5 5 1 -17 -20 -20 -20 -20 -20 -20 -17 -20 -20 -20 -7 1 -1 4 0 -11 4 4 -1 1 4
-6 7 6 10 10 5 2 8 2 -3 6 7 8 8 5 1 2 2 6 7 4 3 -20 -20 -20 -20 -20 -20 -20 -20 -20 -20 -20 -20 -19 2 -19 -20 -16 -4 -2 -2 -1
7 9 9 9 11 8 7 6 5 9 10 9 11 6 6 2 -0 -3 1 2 3 -0 -19 -20 -20 -20 -20 -20 -20 -20 -20 -20 -20 -20 -20 -20 -20 -20 -20 -20 -20 -6 -13
-7 6 9 11 10 12 11 3 -9 7 8 9 8 8 6 1 -1 -4 -4 -5 -20 -20 -20 -20 -20 -20 -20 -20 -20 -20 -20 -20 -20 -20 -20 -20 -20 -20 -20 -20 -20 -20 -20

GFSGL_prec_radar_012.txt.gz
Reflectivity
-20 -20 -20 -20 -20 -20 -20 -20 -20 -20 -20 -20 -2 -20 -20 -20 -13 -20 -20 -20 -20 -20 -20 -9 -12 -8 16 7 -14 -20 -20 -17 -5 -20 -20 -20 -20 -10 11 15 19 -1 -20
-20 -20 -20 -20 -20 -20 -20 -20 -20 -20 -20 -20 -20 -19 -19 -18 -14 -15 -0 1 -5 8 9 8 -5 -20 -4 -7 -18 -20 -20 -20 -20 -20 -20 -20 -20 -20 -20 -20 -6 -5 -18
-20 -20 -20 -20 -20 -20 -20 -20 -20 -20 -20 -20 -20 -20 -20 -20 -20 -20 -20 -20 -20 -20 -20 -20 -20 -20 -20 -20 -20 -20 -20 -20 -20 -20 -20 -20 -20 -20 -20 -20 -20 -20 -20
-19 -19 -20 -20 -20 -20 -20 -20 -20 -20 -20 -20 -20 -20 -20 -20 -20 -20 -20 -20 -20 -20 -20 -20 -20 -20 -20 -0 -15 -20 -20 -20 -20 -20 -20 -20 -20 -20 -20 -20 -20 -20 -20
-19 29 -12 -6 -5 -20 -20 -20 -20 -20 -20 -20 -20 -20 -20 -20 -20 -20 -20 -20 -20 -20 -20 -20 -20 -20 -20 -20 -20 -20 -20 -20 -20 -20 -20 -20 -20 -20 -20 -7 -5 -1 -19
-17 20 -15 -15 31 1 -16 -20 -20 -20 -20 -20 -20 -20 -20 -20 -20 -20 -20 -20 -20 -20 -20 -20 -20 -20 -20 -14 1 -20 -20 -20 -20 -20 -20 -20 -20 -20 -20 -20 -20 -20 -20
-20 -20 -12 5 15 27 3 -20 -20 -20 -20 -20 -20 -20 -20 -20 -20 -20 -20 -20 -20 -20 -20 -20 -20 -20 -20 -19 -1 -14 -20 -20 -20 -20 -20 -20 -20 -20 -20 -20 -20 -20 -20
-13 5 2 7 -20 -10 -12 -20 -20 -20 -20 -20 -20 -20 -20 -20 -20 -20 -20 -20 -20 -20 -20 -20 -20 -20 -20 -20 -17 -20 -20 -20 -20 -3 -6 -20 -6 -20 -20 -7 -7 -16 -20
-20 -18 -19 14 -12 11 -4 -20 -20 -20 -20 -20 -20 -20 -20 -20 -20 0 -20 -20 -20 -20 -20 -20 6 -20 -20 -20 -9 -20 -20 -20 -20 2 12 -4 -1 6 -12 -20 -19 -18 -15
-20 -20 -20 14 31 14 -20 -20 -20 -20 -5 -20 -20 -20 -20 -20 3 -14 -20 -20 -20 -20 -20 -20 -20 3 5 -18 -1 5 3 -2 -20 -20 -20 -20 -20 -20 -20 -7 -12 -16 -20
-20 -20 3 12 37 1 -20 -20 -20 -20 -20 -20 -20 -20 -20 -4 -19 -20 -18 -12 -8 1 -17 -17 -18 11 22 2 -20 -15 -12 -12 -20 -20 -20 -20 -20 -20 -20 -20 -2 9 -20
-20 -20 -20 -5 -20 -20 -20 -20 -20 -20 -20 -20 -20 -20 -20 -20 -20 -13 -20 -20 -18 1 3 7 -10 -9 -7 -13 -20 -13 6 -20 -20 -20 -20 -20 -20 -18 -8 -20 -3 11 4
-20 -20 -6 -20 -20 -20 -20 -20 -20 -20 -20 -20 -20 -20 -20 -20 -20 -19 -20 -20 -19 -18 8 -4 -12 13 -1 2 -8 9 -20 -20 8 11 -17 -9 8 -15 -17 -16 -17 -20 -19
-20 -17 -20 -20 -20 -20 -20 -20 -20 -20 -20 -20 -20 -20 -20 -20 -20 -20 -20 -17 -20 -3 -20 -17 12 -6 -9 -16 12 9 9 12 -7 -3 -2 -17 -17 -7 3 -0 5 13 -3
-20 -20 -20 -20 -20 -20 -20 -20 -20 -20 -20 -20 -20 -20 -20 -20 -20 -1 4 -19 1 -6 -18 5 -6 -20 -8 2 -12 -14 2 -15 -2 -14 -10 -3 3 -1 -20 -20 -20 -20 -2
-20 -20 -20 -20 -20 -20 -20 -20 -20 -20 -20 -20 -20 -20 -20 -20 -20 -2 1 1 7 -10 1 -2 -19 -6 -13 -7 6 -6 -20 8 -18 -8 -10 -6 -0 -14 -20 -20 -4 -15 -20
-20 -20 -20 -20 -20 -20 -20 -20 -20 -12 -20 -20 -20 -20 -20 -20 -15 -2 3 1 11 -13 -5 -2 2 -18 -20 -4 -3 -5 -9 7 -4 -20 4 -2 -20 -20 3 -20 -20 -20 -20
-20 -20 -12 -3 -19 -20 -20 -15 1 -14 -10 4 -20 -20 -20 -20 -16 3 6 -20 -18 -20 -20 -8 -20 -11 -17 -13 -20 -20 -20 4 -20 -20 -10 -20 -17 -20 2 -20 -20 -20 -20
-20 -20 -20 -20 -12 -17 -14 5 -20 -1 1 1 -12 -20 -20 -20 -15 5 4 -19 -20 -20 -20 -20 -20 -20 -20 -20 -20 -20 -20 2 -8 -20 -20 -20 -9 4 -20 -8 -10 -13 -12
-20 -20 -20 -16 4 -6 -1 4 4 -0 -3 -20 -0 -18 -20 -20 -20 -20 -12 -20 -20 -20 -20 -20 -20 -20 -20 -20 -20 -20 -20 -20 -20 -20 -20 -20 -19 -9 -12 4 0 -20 -17
-20 -20 -20 -20 -9 -10 1 3 6 -20 -13 -17 -0 -20 -20 -20 -20 -20 -20 -20 -20 -20 -20 -20 -14 -20 -20 -20 -20 -20 -20 -20 -20 -20 -20 -20 -20 -19 -18 7 -20 5 -20
-20 -20 3 -10 -20 1 -15 -14 -20 -10 -11 7 -14 -15 -20 -20 -20 -20 -15 -20 -19 -20 -20 -20 -20 -20 -20 -20 -17 -20 -20 -20 -20 -20 -20 -20 -20 -20 -20 -20 -12 -20 -1
-9 5 0 -17 -7 2 -1 6 -8 -7 10 -11 -4 -20 -20 -9 -20 -20 -20 -11 -17 -10 -20 -20 -20 -20 -20 -20 -20 -20 -20 -20 -20 -20 -20 -20 -20 -20 -20 -20 -20 -20 -20
-16 3 -7 -13 -6 -3 -1 -15 8 4 -19 -20 -20 -9 -20 -20 -20 -20 -20 -20 -20 -19 -15 -20 -20 -20 -20 -20 -20 -20 -20 -20 -20 -20 -20 -20 -6 -20 -20 -20 -20 -20 -20
-20 -11 -17 -18 5 8 12 -20 -14 -20 -8 7 4 5 1 -19 -20 -20 -20 -20 -20 -20 -20 -20 -20 -20 -20 -20 -20 -20 -20 -20 -20 -20 -20 -20 -20 -20 -20 -20 -20 -20 -20
-20 -10 1 -3 -5 8 3 12 -4 -4 -14 -7 5 8 2 -20 -20 -20 -20 -20 -20 -20 -20 -20 -20 -20 -20 -20 -20 -20 -20 -20 -20 -20 -20 -20 -20 -20 -20 -20 -20 -20 -20

GFSGL_prec_radar_015.txt.gz
Reflectivity
-20 -20 -20 -20 -20 -20 -20 -20 -20 -20 -20 -20 -20 -20 -20 -20 -20 -20 -20 -20 -9 -19 -20 -20 -20 -20 -12 7 -20 -2 5 12 5 -20 -20 -20 -20 -20 -17 -6 -20 -2 31
-20 -20 -20 -20 -20 -17 -20 -20 -20 -20 -20 -20 -20 -20 -20 -20 -20 -20 -20 -20 -20 -20 -20 -20 -20 -20 -20 -20 -20 -20 -20 -20 -20 -20 -20 -20 -20 -20 -20 -20 -20 -12 8
-20 -20 -20 -20 -20 14 25 -20 -20 -17 -19 -20 -20 -20 -20 -20 -20 -20 -20 -20 -20 -20 -20 -20 -20 -20 -20 -20 -20 -20 -20 -20 -20 -20 -20 -20 -20 -20 -20 -20 -20 -20 -7
-20 -20 -20 -0 -20 -20 -20 -4 6 20 -9 -20 -20 -20 -20 -20 -20 -20 -20 -20 -20 -20 -20 -20 -20 -20 -20 -20 -20 -20 -20 -20 -20 -20 -20 -20 -20 -20 -20 -20 -20 -20 -20
-20 -20 -20 -20 -20 6 18 -11 36 12 -0 -20 -20 -20 -20 -20 -20 -20 -20 -20 -20 -20 -20 -20 -20 -20 -20 -16 8 -16 -20 -20 -20 -20 -20 -20 -20 -20 -20 -20 -20 -20 -20
-20 -20 -20 -19 19 17 5 34 21 -10 -15 -20 -20 -20 -20 -20 -20 -20 -20 -20 -20 -20 -20 -20 -20 -20 -20 -20 -20 -20 -20 -15 -20 -20 -20 -20 -20 -20 -20 -20 -20 -20 -20
-20 -20 -20 -20 -20 -20 -11 10 -3 4 -20 -20 -20 -20 -20 -20 -20 -20 -20 -20 -20 -20 -20 -20 -20 -20 -20 -20 -12 -20 -20 -20 -20 -20 -19 -20 -20 -20 -20 -20 -20 -20 -20
-20 -20 -20 -20 -20 -20 11 36 8 -20 -11 -20 -20 -20 -20 -20 -20 -20 -20 -20 -20 -20 -20 -20 -20 -20 -20 -20 -13 -17 -20 -20 -20 -20 -14 -20 -18 -20 -20 -12 -20 -2 -20
-20 -20 -20 -20 -20 -20 17 8 -16 -6 -20 -20 -20 -20 -20 -20 -20 -20 -20 -20 -20 -20 -20 -20 -13 -18 -20 10 -3 2 -20 -20 -20 -20 5 4 -7 -19 12 11 -10 -20 -20
-20 -20 -20 -20 -20 -20 -1 -8 -20 -20 -20 -20 -20 -20 -20 -20 -20 -20 -18 -19 -20 -19 -20 -20 -20 -20 11 14 14 -20 -20 -20 -20 -20 -20 -20 -20 -20 -20 -20 -20 -20 7
-20 -20 -20 -20 -20 -20 -20 -20 -13 -20 -20 -20 -20 -20 -20 -20 -20 -20 -4 -20 -20 -8 -2 -14 -13 -3 -19 15 9 -8 -20 -11 0 -20 -20 -20 -20 -20 -20 -20 -20 -14 -13
-20 -20 -20 -20 -20 -20 -20 -20 -20 -20 -20 -20 -20 -20 -20 -20 -20 -20 -20 -20 -12 -18 -0 -0 -19 11 -1 -3 -5 -1 15 -12 -20 -20 -20 -20 -20 -20 -20 -11 15 -6 -20
-20 -20 -20 -20 -20 -20 -20 -20 -20 -20 -20 -20 -20 -20 -20 -20 -20 -20 -20 -0 -4 -20 -19 -3 10 -15 -18 -18 0 4 -19 5 -15 -20 -15 -15 -16 -18 -20 -15 -20 -19 -20
-20 -20 -20 -20 -20 -20 -20 -20 -20 -20 -20 -20 -20 -20 -20 -20 -20 -20 -20 -20 -20 -20 -20 -19 -17 -20 -10 -0 -20 -20 -20 -20 -6 -20 -20 -20 -20 -17 -20 -18 -20 13 -20
-20 -20 -20 -20 -20 -20 -20 -20 -20 -20 -20 -20 -20 -20 -20 -20 -20 3 -11 -20 6 -20 -20 -20 -20 -20 -20 -2 -20 -20 -20 -20 -20 -20 -20 -20 -20 -20 -20 -19 -13 -20 -19
-20 -20 -20 -20 -20 -20 -20 -20 -20 -20 -20 -20 -20 -20 -20 -20 -20 -4 0 2 9 -20 -20 -20 -20 -20 -20 -16 -20 -20 -20 0 -20 -20 -20 -20 -20 -20 -20 -20 -20 -20 -20
-20 -20 -20 -20 -20 -20 -20 -20 -20 -20 -20 -20 -20 -20 -20 -20 -20 -11 1 -11 -20 -20 -20 -20 -20 -20 -20 -20 -20 -20 -20 1 -20 -20 -20 -20 -20 -20 -20 -20 -20 -20 -20
-20 -20 -20 -20 -20 -20 -20 -20 -18 -12 -20 -20 -20 -20 -20 -20 -20 -15 1 -20 -20 -20 -20 -20 -20 -20 -20 -20 -20 -20 -20 -19 -20 -20 -20 -20 -20 -20 -20 -20 -20 -20 -20
-20 -20 -20 -20 -20 -20 -20 -20 -7 -6 4 -20 -20 -20 -20 -20 -20 -20 -20 -20 -20 -20 -20 -20 -20 -20 -20 -20 -20 -20 -20 -20 -20 -20 -20 -20 -20 -20 -20 -20 -20 -20 -20
-20 -20 -20 -20 -20 -20 -14 -20 -12 -11 -11 -20 -20 -20 -20 -20 -20 -20 -20 -20 -20 -20 -20 -20 -20 -20 -20 -20 -20 -20 -20 -20 -20 -20 -20 -20 -20 -20 -20 -19 -20 -19 -20
-20 -20 -20 -20 -20 -20 -20 -20 -20 -12 -6 -20 -20 -20 -20 -20 -20 -20 -20 -20 -20 -20 -20 -20 -20 -20 -20 -20 -20 -20 -20 -20 -20 -20 -20 -20 -20 -20 -20 -20 -20 -20 -20
-20 -20 -20 -20 -14 5 5 -0 -20 -14 -8 -20 -20 -20 -20 -20 -20 -20 -20 -20 -20 -20 -20 -20 -20 -20 -20 -20 -20 -20 -20 -20 -20 -20 -20 -20 -20 -20 -20 -20 -20 -20 -20
-20 -20 -20 -20 -7 -19 1 -7 -11 -17 -7 -10 -11 -20 -20 -20 -20 -20 -20 -20 -20 -20 -20 -20 -20 -20 -20 -20 -20 -20 -20 -20 -20 -20 -20 -20 -20 -20 -20 -20 -20 -20 -20
-20 -20 -20 -19 -20 -20 5 7 1 -6 -5 -20 -17 -19 -20 -20 -20 -20 -20 -20 -20 -20 -20 -20 -20 -20 -20 -20 -20 -20 -20 -20 -20 -20 -20 -20 -20 -20 -20 -20 -20 -20 -20
-20 -20 -20 -20 -20 -20 -20 -20 7 4 -16 -20 -20 -18 -20 -20 -20 -20 -20 -20 -20 -20 -20 -20 -20 -20 -20 -20 -20 -20 -20 -20 -20 -20 -20 -20 -20 -20 -20 -20 -20 -20 -20
-20 -20 -20 -20 -20 -12 -20 4 -11 -5 -2 -20 -20 -20 -20 -20 -20 -20 -20 -20 -20 -20 -20 -20 -20 -20 -20 -20 -20 -20 -20 -20 -20 -20 -20 -20 -20 -20 -20 -20 -20 -20 -20

GFSGL_prec_radar_018.txt.gz
Reflectivity
-20 -20 -20 -20 -20 -20 -20 -20 -20 -20 1 18 -19 -3 -10 -1 -20 -20 -20 -20 -20 -20 -20 -20 -20 -20 -20 -20 -20 -20 -20 2 -0 -20 -20 -20 -20 -20 -20 -20 -20 -20 -9
-20 -20 -20 -20 -20 -20 -20 -20 -14 -20 -20 -18 -20 -20 -20 -10 -20 -20 -20 -20 -20 -20 -20 -20 -20 -20 -20 -20 -20 -20 -20 -20 -20 -20 -20 -20 -20 -20 -20 -20 -20 -20 -20
-20 -20 -20 -20 -20 -20 -20 -20 -20 13 -16 -19 8 10 6 -7 -20 -20 -20 -20 -20 -20 -20 -20 -20 -20 -20 -20 -20 -20 -20 -20 -20 -20 -20 -20 -20 -20 -20 -20 -20 -20 -20
-20 -20 -20 -20 -20 -20 -20 -20 -17 -13 18 -20 -9 18 -6 -20 -20 -20 -20 -20 -20 -20 -20 -20 -20 -20 -20 -20 -20 -10 -20 -20 -20 -20 -20 -20 -20 -20 -20 -20 -20 -20 -20
-20 -20 -20 -20 -20 -20 -20 -20 -17 2 -20 -20 -20 -20 -20 -20 -20 -20 -20 -20 -20 -20 -20 -20 -20 -20 -20 -20 1 -20 1 -0 -20 -20 -20 -20 -20 -20 -20 -20 -20 -20 -20
-20 -20 -20 -20 -20 -20 -20 -20 -20 -5 -10 15 -19 -9 -20 -20 -20 -20 -20 -20 -20 -20 -20 -20 -20 -20 -20 -20 -20 3 6 5 -14 6 -20 -20 -20 -20 -20 -20 -20 -20 -20
-20 -20 -20 -20 -20 -20 -20 -20 -20 19 9 -20 -5 -20 -20 -20 -20 -20 -20 -20 -20 -20 -20 -20 -20 -20 -20 -20 -20 -20 -20 -20 1 8 -15 -20 -20 -20 -20 -20 -20 -20 -20
-20 -20 -20 -20 -20 -20 -20 -20 -20 -20 -20 -16 -20 -20 -20 -20 -20 -20 -20 -20 -20 -20 -20 -20 -20 -20 -20 -20 -3 11 -20 -20 -20 -20 -20 -20 -20 -20 -20 -20 -20 -20 -20
-20 -20 -20 -20 -20 -20 -20 -20 -20 -18 -20 -20 -20 -20 -20 -20 -20 -20 -20 -20 -20 -20 -20 -20 -4 -17 -20 14 -7 12 -9 -20 -20 -18 5 4 -14 -19 10 5 -8 11 -8
-20 -20 -20 -20 -20 -18 -20 -20 -20 -20 -20 -20 -20 -20 -20 -20 -20 -20 -20 -20 -20 -7 -20 -20 -20 2 -3 8 14 2 -0 -20 -20 -20 -20 -20 -20 -20 -20 -20 -20 -20 -20
-20 -20 -20 -20 -20 -20 -20 -20 -20 -20 -20 -20 -20 -20 -20 -20 -20 -20 -20 -20 -10 -5 -20 -14 -20 -13 6 0 -4 -7 -12 -7 -15 -6 -20 -20 -20 -20 -20 -20 -20 -20 -20
-20 -20 -20 -20 -20 -20 -20 -20 -20 -20 -20 -20 -20 -20 -20 -20 -20 -20 -20 -1 1 -12 0 -13 -17 5 9 7 3 3 -13 -20 -20 -20 -20 -20 -20 -20 -20 -20 -20 -20 -20
-20 -20 -20 -20 -20 -20 -20 -20 -20 -20 -20 -20 -20 -20 -20 -20 -20 -20 -20 -19 -20 -14 -20 4 -5 -2 -4 -13 1 2 -20 -20 -20 -20 -20 -19 -2 1 -3 -16 -20 -20 -20
-20 -20 -20 -20 -20 -20 -20 -20 -20 -20 -20 -20 -20 -20 -20 -20 -20 -20 -20 -20 -20 -15 -20 -20 -20 -7 -20 -13 -20 -20 -20 -20 -9 -18 -20 -20 -20 -8 -20 -9 -19 -3 -20
-20 -20 -20 -20 -20 -20 -20 -20 -20 -20 -20 -20 -20 -20 -20 -20 -20 2 -7 -20 -10 -20 -20 -20 -20 -20 -20 -20 -20 -20 -20 -20 -20 -20 -20 -20 -20 -20 -20 -11 -20 -20 -20
-20 -20 -20 -20 -20 -20 -20 -20 -20 -20 -20 -20 -20 -20 -20 -20 -20 -3 -1 -20 -20 -20 -20 -20 -20 -20 -20 -9 -20 -20 -20 -15 -20 -20 -20 -20 -20 -20 -20 -20 -20 -20 -20
-20 -20 -20 -20 -20 -20 -20 -20 -20 -20 -20 -20 -20 -20 -20 -20 -20 -20 -9 -20 -20 -20 -20 -20 -20 -20 -20 -20 -20 -20 -20 -20 -20 -20 -20 -20 -20 -20 -20 -20 -20 -20 -20
-20 10 -20 -20 -20 -20 -20 -20 -20 -20 -20 -20 -20 -20 -20 -20 -20 -20 -20 -20 -20 -20 -20 -20 -20 -20 -20 -9 -20 -20 -20 -20 -20 -20 -20 -20 -20 -20 -20 -20 -20 -20 -20
-20 -20 -20 -20 -20 -20 -20 -20 -20 -20 -20 -20 -20 -20 -20 -20 -20 -20 -20 -20 -20 -20 -20 -20 -20 -20 -20 -20 -20 -20 -20 -20 -20 -20 -20 -20 -20 -20 -20 -20 -20 -20 -20
-19 7 -20 -20 -20 -20 -20 -20 -20 -20 -20 -20 -20 -20 -20 -20 -20 -20 -20 -20 -20 -20 -20 -20 -20 -20 -20 -20 -20 -20 -20 -20 -20 -20 -20 -20 -20 -20 -20 -20 -20 -20 -20
-20 -15 1 -20 -20 -20 -20 -9 2 -19 -19 -20 -20 -20 -20 -20 -20 -20 -20 -20 -20 -20 -20 -20 -20 -20 -20 -20 -20 -20 -20 -20 -20 -20 -20 -20 -20 -20 -20 -20 -20 -20 -20
-20 -20 -20 -20 -20 -20 -9 -7 0 -20 -20 -20 -20 -20 -20 -20 -20 -20 -20 -20 -20 -20 -20 -20 -20 -20 -20 -20 -20 -20 -20 -20 -20 -20 -20 -20 -20 -20 -20 -20 -20 -20 -20
-20 -20 -20 -20 -20 -20 -20 -9 1 -2 -20 -6 -20 -20 -20 -20 -20 -20 -20 -20 -20 -20 -20 -20 -20 -20 -20 -20 -20 -20 -20 -20 -20 -20 -20 -20 -20 -20 -20 -20 -20 -20 -20
-20 -20 -20 -20 -20 -20 -20 -20 2 -17 3 -20 -20 -20 -20 -20 -20 -20 -20 -20 -20 -20 -20 -20 -20 -20 -20 -20 -20 -20 -20 -20 -20 -20 -20 -20 -20 -20 -20 -20 -20 -20 -20
-17 -20 -20 -20 -20 -20 -20 -20 2 6 -14 -20 -19 -20 -20 -20 -20 -20 -20 -20 -20 -20 -20 -20 -20 -20 -20 -20 -20 -20 -20 -20 -20 -20 -20 -20 -20 -20 -20 -20 -20 -20 -20
-20 -20 -20 -20 -20 -20 -20 -20 -20 -14 5 1 -20 -20 -20 -20 -20 -20 -20 -20 -20 -20 -20 -20 -20 -20 -20 -20 -20 -20 -20 -20 -20 -20 -20 -20 -20 -20 -20 -20 -20 -20 -20

GFSGL_prec_radar_024.txt.gz
Reflectivity
-20 -20 -20 -20 -20 -20 -20 -20 -20 -20 -20 -20 -20 -20 -20 -20 13 -19 -20 -20 -20 -20 -20 -20 -20 -20 -20 -20 -20 -20 -20 -20 -20 -20 -20 -20 -20 -20 -20 -20 -20 -20 -20
-20 -20 -20 -20 -20 -20 -20 -20 -20 -20 -20 -20 -20 -20 -20 -20 -20 -20 -20 -20 -20 -20 -20 -20 -20 -20 -20 -20 -20 -20 -20 -20 -20 -7 -20 -20 -20 -20 -10 -20 -20 -20 -20
-20 -20 -20 -20 -20 -20 -20 -20 -20 -20 -20 -20 -20 -17 -17 -20 -20 -20 -20 -20 -20 -20 -20 -20 -20 -20 -20 -20 -20 -20 -20 -20 -17 16 0 -20 -20 -20 -20 -20 -20 -20 -20
-20 -20 -20 -20 -20 -20 -20 -20 -20 -20 -20 -20 -11 -16 -18 -20 -20 -20 -20 -20 -20 -20 -20 -20 -20 -20 -20 -20 -10 -8 -20 -18 -8 -20 -18 -6 -5 -20 -20 -6 -20 -20 -20
-20 -20 -20 -20 -20 -20 -20 -20 -20 -20 -20 -20 -20 -20 -19 -20 -20 -20 -20 -20 -20 -20 -20 -20 -20 -11 3 2 1 -0 -3 -5 6 12 -0 6 6 -1 -8 -2 11 -20 -20
-20 -20 -20 -20 -20 -20 -20 -20 -20 -20 -20 -20 -5 -19 -20 -20 -20 -20 -20 -20 -20 -20 -20 -20 -20 -20 -20 -3 -4 2 5 2 9 11 -20 -20 -20 -20 -20 6 12 -20 -20
-20 -20 -20 -20 -20 -20 -20 -20 -20 -20 -18 -20 -20 -20 -20 -20 -20 -20 -20 -20 -20 -20 -20 -20 -20 -20 -20 -20 -20 -20 -20 -16 9 -2 16 -14 -4 -20 -20 -20 -17 -20 -20
-20 -20 -20 -20 -20 -20 -20 -20 -20 -20 -20 -20 -20 -20 -20 -20 -20 -20 -20 -20 -20 -20 -20 -20 -20 -20 -20 -4 1 3 -10 -20 -20 -12 -11 -20 -20 -20 9 -19 -20 -19 -20
-20 -20 -20 -20 -20 -20 -20 -20 -20 -20 -20 -20 -20 -20 -20 -20 -20 -20 -20 -20 -20 -20 -20 -20 -2 -4 -20 13 9 8 -20 -20 -20 -11 9 6 -11 -18 -4 14 2 12 -13
-20 -20 -20 -20 -20 -20 -20 -20 -20 -20 -20 -20 -20 -20 -20 -20 -20 -20 -20 -20 -20 -20 -20 -20 -20 1 7 9 11 -16 -16 7 -20 -18 -18 -20 -20 -20 -20 -20 -20 -20 6
-20 -20 -20 -20 -20 -20 -20 -20 -20 -20 -20 -20 -20 -20 -20 -20 -20 -20 -20 -20 -18 -5 -20 -20 -20 4 6 2 3 2 12 -6 -20 -20 -20 -20 -20 -20 -20 -20 -20 -20 -20
-20 -20 -20 -20 -20 -20 -20 -20 -20 -20 -20 -20 -20 -20 -20 -20 -20 -20 -8 -1 -11 -20 -20 -20 -20 -1 -14 -4 -4 7 -3 -20 -20 -20 -20 -20 -20 -20 -19 -11 -20 -20 -20
-20 -20 -20 -20 -20 -20 -20 -20 -20 -20 -20 -20 -20 -20 -20 -20 -20 -20 -20 -18 -20 -20 -20 -20 -20 -20 -20 -20 -20 -20 -20 -20 -20 -20 -20 -20 -20 -20 -20 -19 -20 -20 -20
-20 -20 -20 -20 -20 -20 -20 -20 -20 -20 -20 -20 -20 -20 -20 -20 -20 -20 -20 -20 -20 -20 -20 -20 -20 -20 -20 -20 -20 -20 -20 -20 -20 -20 -20 -20 -20 -20 -14 11 2 8 7
-20 -20 -20 -20 -18 -20 -20 -20 -20 -20 -20 -20 -20 -20 -20 -20 -20 -20 -19 -20 -20 -20 -20 -20 -20 -20 -20 -20 -20 -20 -20 -20 -20 -20 -20 -20 -20 -20 -20 -11 -8 -17 -4
-20 -20 -15 -11 -20 -20 -20 -20 -20 -20 -20 -20 -20 -20 -20 -20 -20 -20 -20 -20 -20 -20 -20 -20 -20 -20 -20 -20 -20 -20 -20 -20 -20 -20 -20 -20 -20 -20 -20 -20 -20 -20 -20
-20 -20 -20 -7 -19 -20 -20 -20 -20 -20 -20 -20 -20 -20 -20 -20 -20 -20 -20 -20 -20 -20 -20 -20 -20 -20 -20 -20 -20 -20 -20 -20 -20 -20 -20 -20 -20 -20 -20 -20 -20 -20 -20
-20 -11 -12 -20 -20 -20 -20 -20 -19 -20 -20 -20 -20 -20 -20 1 -16 -20 -20 -20 -20 -20 -20 -20 -20 -20 -20 -20 -20 -20 -20 -20 -20 -20 -20 -20 -20 -20 -20 -20 -20 -20 -20
-1 -12 -20 -19 -20 -20 -20 -20 -20 -20 -20 -20 -20 -20 -20 -20 -20 -20 -20 -20 -20 -20 -20 -20 -20 -20 -20 -20 -20 -20 -20 -20 -20 -20 -20 -20 -20 -20 -20 -20 -20 -20 -20
-20 -10 -9 -20 -20 -20 -20 -20 -20 -20 -20 -18 -20 -20 -20 -20 -20 -20 -20 -20 -20 -20 -20 -20 -20 -20 -20 -20 -20 -20 -20 -20 -20 -20 -20 -20 -20 -20 -20 -20 -20 -20 -20
-20 -20 -17 -16 -20 -20 -20 -20 -20 -8 -1 3 -20 -20 -20 -20 -20 -20 -20 -20 -20 -20 -20 -20 -20 -20 -20 -20 -20 -20 -20 -20 -20 -20 -20 -20 -20 -20 -20 -20 -20 -20 -20
-20 -17 0 -20 -19 -5 -20 -20 -20 -20 -20 -4 -20 -20 -20 -20 -20 -20 -20 -20 -20 -20 -20 -20 -20 -20 -20 -20 -20 -20 -20 -20 -20 -20 -20 -20 -20 -20 -20 -20 -20 -20 -20
-11 -15 -20 -20 -18 -20 -20 -20 -20 -20 -20 -20 -20 -20 -20 -20 -20 -20 -20 -20 -20 -20 -20 -20 -20 -20 -20 -20 -20 -20 -20 -20 -20 -20 -20 -20 -20 -20 -20 -20 -20 -20 -20
-3 -20 -20 -19 -19 -20 -20 -20 -20 -20 -20 -20 -20 -20 -20 -20 -20 -20 -20 -20 -20 -20 -20 -20 -20 -20 -20 -20 -20 -20 -20 -20 -20 -20 -20 -20 -20 -20 -20 -20 -20 -20 -20
3 -10 -20 -19 -20 -20 -20 -20 -20 -20 -20 -20 -20 -20 -20 -20 -20 -20 -20 -20 -20 -20 -20 -20 -20 -20 -20 -20 -20 -20 -20 -20 -20 -20 -20 -20 -20 -20 -20 -20 -20 -20 -20
7 -15 -10 -18 -17 -20 -20 -18 -17 -18 -18 -18 -8 -19 -20 -20 -20 -20 -20 -20 -20 -20 -20 -20 -20 -20 -20 -20 -20 -20 -20 -20 -20 -20 -20 -20 -20 -20 -20 -20 -20 -20 -20

GFSGL_prec_radar_027.txt.gz
Reflectivity
-20 9 -19 -20 -20 -20 -20 -20 -20 -20 -20 -20 -20 -20 -20 -20 -20 -20 -20 -20 -20 -20 -20 -20 -20 -20 -20 -20 -20 -20 -20 -20 -20 -20 -20 -20 -20 -20 -20 -20 -20 -20 -20
14 -20 -20 -20 -20 -20 -20 -20 -20 -20 -20 -20 -20 -20 -20 -20 -20 -20 -20 -20 -20 -20 -20 -20 -20 -20 -20 -20 -20 -20 -2 -2 3 -17 -20 -20 1 -19 -19 3 1 -20 -20
-20 -20 -20 -20 -20 -20 -20 -20 -20 -20 -20 -20 -20 -16 5 -20 -20 -20 -20 -20 -20 -20 -20 -20 -20 -20 -20 -20 -15 -2 1 1 2 5 -17 -20 -20 -20 -12 -4 0 -1 -19
-20 -20 -20 -20 -20 -20 -20 -20 -20 -20 -20 -8 5 -20 -20 -20 -20 -20 -20 -20 -20 -20 -20 -20 -20 -20 -20 -20 -5 -2 2 8 4 3 -1 -1 2 -20 15 13 6 7 -10
-20 -20 -20 -20 -20 -20 -20 -20 -20 -20 -20 -16 -20 -20 -19 -20 -20 -20 -20 -20 -20 -20 -20 -20 -20 -20 -20 -20 -5 -0 -0 0 6 10 9 1 0 -2 3 -3 10 12 15
-20 -20 -20 -20 -20 -20 -20 -20 -20 -20 -20 -4 -20 -20 -20 -20 -20 -20 -20 -20 -20 -20 -20 -20 -20 -20 -20 -20 -20 -20 -19 8 14 12 9 17 -11 16 8 10 11 16 8
-20 -20 -20 -20 -20 -20 -20 -20 -20 -20 -20 -20 -20 -20 -20 -20 -20 -20 -20 -20 -20 -20 -20 -20 -20 -20 -16 -0 -8 -1 9 4 5 10 9 13 13 9 9 14 16 14 11
-20 -20 -20 -20 -20 -20 -20 -20 -20 -20 -20 -20 -20 -20 -20 -20 -20 -20 -20 -20 -20 -20 -20 -20 -20 -6 -3 2 14 7 8 3 4 14 16 17 15 14 12 11 18 15 6
-20 -20 -20 -20 -20 -20 -20 -20 -20 -20 -20 -20 -20 -20 -20 -20 -20 -20 -20 -20 -20 -20 -20 -20 -8 -8 -2 8 8 9 3 2 4 1 -9 -2 -13 9 13 13 9 18 11
-20 -20 -20 -20 -20 -20 -20 -20 -20 -20 -20 -20 -20 -20 -20 -20 -20 -20 -20 -20 -20 -19 -20 -20 -20 -0 7 4 -0 6 6 8 5 4 3 5 6 10 -6 5 6 5 9
-20 -20 -20 -20 -20 -20 -20 -20 -20 -20 -20 -20 -20 -20 -20 -20 -20 -20 -20 -18 -4 -6 -20 -20 -20 -3 -5 -20 -5 4 9 1 3 3 5 4 6 6 10 10 4 4 5
-20 -20 -20 -20 -20 -20 -20 -20 -20 -20 -20 -20 -20 -20 -20 -20 -20 -20 -20 -20 -20 -16 -20 -20 -20 -20 -20 -20 -20 -1 -20 -17 3 3 2 2 -0 -1 0 3 10 8 -1
-20 -20 -20 -20 -20 -20 -20 -20 -20 -20 -20 -20 -20 -20 -20 -20 -20 -20 -20 -20 -20 -20 -20 -20 -20 -20 -20 -20 -20 -20 -20 -20 -1 -1 -3 -19 -5 -2 1 11 10 10 1
-20 -20 -20 -20 -20 -20 -20 -20 -20 -20 -20 -20 -20 -20 -20 -20 -20 -20 -20 -20 -20 -20 -20 -20 -20 -20 -20 -20 -20 -20 -20 -20 -20 -2 -2 -18 -20 -20 -3 6 13 10 11
-20 -20 -20 -20 -20 -20 -20 -20 -20 -20 -20 -20 -20 -20 -20 -20 -20 -20 -12 -3 -20 -20 -20 -20 -20 -20 -20 -20 -20 -20 -20 -20 -20 -20 -20 -20 -20 -20 -9 -3 -11 4 5
-20 -20 -20 -20 -20 -20 -20 -20 -20 -20 -20 -20 -20 -20 -20 -20 -20 -20 -20 -20 -20 -20 -20 -20 -20 -20 -20 -20 -20 -20 -20 -20 -20 -20 -20 -20 -20 -7 -2 -1 -20 -4 -2
-20 -20 -20 -20 -20 -20 -20 -20 -20 -20 -20 -20 -20 -20 -20 -20 -20 -20 -20 -20 -20 -20 -20 -20 -20 -20 -20 -20 -20 -20 -20 -20 -20 -20 -20 -20 -20 -19 0 1 -0 -20 -20
-20 -20 -20 -19 -20 -20 -20 -20 -20 -20 -19 -20 -20 -20 -20 -20 -10 1 -20 -20 -20 -20 -20 -20 -20 -20 -20 -20 -20 -20 -20 -20 -20 -20 -20 -20 -20 -20 -1 -2 0 -20 -20
-20 -20 -20 1 -3 -20 -20 -20 -20 -20 -20 -20 -20 -20 -20 -20 -20 10 -19 -12 -20 -20 -20 -20 -20 -20 -20 -20 -20 -20 -20 -20 -20 -20 -20 -20 -20 -20 -20 -20 -6 -20 -20
-20 -20 -20 -9 -20 -20 -20 -20 -20 -20 -20 -20 -8 -19 -20 -20 -20 -20 -20 -20 -20 -20 -20 -20 -20 -20 -20 -20 -20 -20 -20 -20 -20 -20 -20 -20 -20 -20 -20 -20 -20 -6 -20
-20 -10 -20 -2 -16 -20 -20 -20 -20 -20 -6 2 3 9 -20 -20 -20 -10 -20 -20 -20 -20 -20 -20 -20 -20 -20 -20 -20 -20 -20 -20 -20 -20 -20 -20 -20 -20 -0 -20 -20 -20 -20
-20 -20 -20 -11 -1 -4 -18 -18 -20 -20 -20 -20 -20 -20 -20 -20 -20 -20 -20 -20 -20 -20 -20 -20 -20 -20 -20 -20 -20 -20 -20 -20 -20 -20 -20 -20 -20 -20 -20 -20 -20 -20 -20
-20 -20 -20 -20 -3 -12 -16 -20 -20 -20 -20 -20 -20 -20 -20 -20 -20 -20 -20 -20 -20 -20 -20 -20 -20 -20 -20 -20 -20 -20 -20 -20 -20 -20 -20 -20 -20 -20 -20 -20 -20 -20 -20
-20 -15 -8 -7 3 -20 -17 -20 -20 -20 -20 -20 -20 -20 -20 -20 -20 -20 -20 -20 -20 -20 -20 -20 -20 -20 -20 -20 -20 -20 -20 -20 -20 -20 -20 -20 -18 -20 -20 -20 -20 -20 -20
-19 -2 1 14 15 9 -19 -20 -20 -20 -20 -20 -20 -20 -20 -20 -20 -20 -20 -20 -20 -20 -20 -20 -20 -20 -20 -20 -20 -20 -20 -20 -20 -20 -20 -20 -20 -20 -20 -20 -20 -20 -20
4 7 11 5 7 11 -20 -20 -20 -20 -20 -20 -20 -20 -20 -20 -20 -20 -16 -17 -20 -20 -20 -20 -20 -20 -20 -20 -20 -20 -20 -20 -20 -20 -20 -20 -20 -20 -20 -20 -20 -20 -20

GFSGL_prec_radar_030.txt.gz
Reflectivity
-11 1 -20 -18 -20 -20 -20 -20 -20 -20 -20 -20 -20 -20 -20 -20 -20 9 16 17 -20 -20 -19 -4 -20 -20 -20 -20 -20 -20 -20 -20 -11 -20 -20 -20 -20 -20 -20 -20 -20 -20 -20
-17 -20 -16 -20 -20 -20 -20 -20 -20 -20 -20 -20 -20 -20 -20 -20 8 18 -20 -20 -20 -18 -20 -20 -20 -20 -20 -20 -20 -20 -20 -20 -1 -16 -20 -20 -20 -20 -20 -20 -20 -20 -20
-20 -12 -20 -20 -20 -20 -20 -20 -20 -20 -20 -20 -20 -9 -20 5 8 -20 -20 -20 -19 -20 -15 4 -20 -20 -20 -20 -20 -20 -20 -20 4 5 5 -20 -20 -20 -20 -13 -20 -13 -20
-20 -20 -20 -20 -20 -20 -20 -20 -20 -20 -20 -20 -17 -20 -20 -20 -20 -20 -20 -18 6 -8 -20 -20 -20 -20 -20 -20 -20 -20 -20 -6 1 5 2 -3 -3 -5 -6 -13 -5 -16 11
-20 -20 -20 -20 -20 -20 -20 -20 -20 -20 -20 -20 -13 -2 -20 -15 -20 -9 -1 1 -17 -20 -20 -20 -20 -20 -20 -20 -20 -20 -3 1 4 6 8 7 1 4 12 -10 13 -14 -18
-20 -20 -20 -20 -20 -20 -20 -20 -20 -20 -20 -20 -1 -20 -20 -20 -20 -20 -20 -20 -20 -20 -20 -20 -20 -20 -20 -20 -11 -3 -19 5 15 3 2 12 -7 -3 -9 17 14 18 3
-20 -20 -20 -20 -20 -20 -20 -20 -20 -20 -20 -4 3 5 5 7 -20 -20 -20 -20 -20 -20 -20 -20 -20 -20 -20 -19 -18 -20 -7 -4 6 10 9 12 15 19 17 17 -3 15 17
-20 -20 -20 -20 -20 -20 -20 -20 -20 -20 -20 1 4 3 2 -20 -20 -20 -20 -20 -20 -20 -20 -20 -20 -20 -20 -15 3 5 6 -0 1 -9 1 3 4 5 15 18 17 14 -17
-20 -20 -20 -20 -20 -20 -20 -20 -20 -20 -20 -3 3 4 -20 -20 -20 -20 -20 -20 -20 -20 -20 -20 -20 -20 -20 -5 1 -1 -2 -5 -9 -18 -20 3 -20 -20 -14 16 11 14 15
-17 -20 -20 -20 -20 -20 -20 -20 -20 -20 -20 -20 -20 -20 -20 -20 -20 -20 -20 -20 -4 -20 -20 -20 -20 -20 -20 -9 -13 -1 2 6 -2 0 3 6 5 0 -18 -2 13 14 8
-16 -20 -20 -20 -20 -20 -20 -20 -20 -20 -20 -20 -20 -20 -20 -20 -20 -20 -20 -20 -7 -20 -20 -20 -20 -20 -20 -20 -20 -3 1 -3 0 2 4 6 7 8 9 16 20 20 15
-17 -20 -20 -20 -20 -20 -20 -20 -20 -20 -20 1 -17 -20 -5 -19 -20 -20 -20 -20 -20 -16 -20 -20 -20 -20 -20 -20 -20 -20 -20 -17 2 4 7 5 3 3 3 6 15 17 16
-20 -20 -20 -20 -20 -20 -20 -13 -2 -20 -20 -1 1 4 3 3 -19 -20 -20 -20 -20 -20 -20 -20 -20 -20 -20 -20 -20 -20 -20 -20 1 4 4 2 1 2 6 12 11 19 8
-14 -20 -20 -20 -20 -20 -20 -20 -20 -20 1 1 -2 -4 -2 -6 -4 -20 -8 -19 -17 -6 -20 -20 -20 -20 -20 -20 -20 -20 -20 -20 -8 4 2 3 -1 4 6 8 9 9 26
-20 -20 -20 -20 -20 -20 -20 -12 -19 -2 1 -12 -20 -4 0 3 -20 -8 -7 -1 -1 -9 -20 -20 -20 -20 -20 -20 -20 -20 -20 -20 -20 -1 3 3 1 0 1 6 5 4 12
-20 -20 -20 -20 -20 -11 3 -3 -20 -20 -20 -20 -20 -20 -20 -13 -20 -20 -20 -20 -20 -20 -20 -18 -4 2 -6 -20 -20 -20 -20 -20 -20 -20 -14 -1 1 0 2 5 3 2 8
-20 -20 -20 -20 -4 -20 0 6 8 -6 -20 -20 -20 -20 -20 -20 -20 -20 -20 -20 -20 -20 -3 3 4 3 1 -20 -20 -20 -20 -20 -20 -20 -20 -16 -5 -5 4 4 5 3 -2
-20 -20 -19 -14 1 3 13 11 13 12 8 7 -15 -20 -20 -20 -20 -20 -20 -9 3 -14 -20 2 2 3 -20 -20 -20 -20 -20 -20 -20 -20 -20 -20 -20 -9 -1 0 2 3 1
-20 -20 -9 4 12 8 11 12 6 13 -2 2 6 -20 -20 -20 -20 -20 5 13 1 1 2 -0 -0 1 -10 -20 -20 -20 -20 -20 -20 -20 -11 -20 -20 -20 -20 -16 0 -2 -18
-20 -20 -18 -2 -1 5 4 13 11 12 11 8 -16 -1 1 -20 10 7 11 13 7 -3 1 2 0 -1 0 1 1 1 -6 -20 -20 -20 -20 -20 -20 -20 -20 -20 -14 -20 -17
-20 -19 -20 -5 2 3 9 12 10 13 13 10 -4 -7 -1 3 8 4 7 13 9 3 6 -20 2 -4 1 2 -0 0 -18 -1 -20 -20 -20 -20 -20 -20 -16 -20 -19 -20 -20
1 2 2 13 12 8 7 14 16 13 10 10 2 4 -14 2 7 9 8 8 12 8 8 5 1 1 0 -0 -1 2 2 -0 0 -3 -20 -20 -20 -20 -20 -20 -10 -20 -20
8 6 -8 11 12 -5 -2 7 15 15 13 10 5 -2 3 7 6 4 9 9 10 11 7 3 4 2 -0 0 0 -1 0 -9 -1 -10 -20 -20 -20 -20 -20 -20 -20 -20 -20
5 4 -2 -5 5 12 15 17 8 7 11 11 13 9 8 6 9 4 4 8 10 9 9 2 -2 1 -4 -2 -1 -2 -20 -20 -12 -20 -20 -20 -20 -20 -20 -20 -20 -20 -20
4 7 11 9 12 18 16 11 10 11 11 12 11 11 9 8 8 7 6 6 2 8 7 2 2 -13 -20 -20 -20 -9 -20 -20 -20 -20 -20 -20 -20 -20 -20 -20 -20 -20 -20
1 6 10 13 14 15 16 17 14 12 11 14 14 13 13 12 11 12 10 10 9 9 7 4 -8 -20 -20 -20 -20 -20 -20 -20 -20 -20 -20 -20 -20 -20 -20 -20 -20 -20 -20

GFSGL_prec_radar_033.txt.gz
Reflectivity
-20 -20 -20 9 7 -20 -20 -20 -20 -20 -20 -20 -20 -20 -20 -20 -20 -20 -20 -20 4 -4 -17 -1 7 -4 -20 5 -15 -20 -20 -20 -20 -20 -20 -20 -19 -20 -20 -20 -20 -20 -20
-20 -20 -6 14 -20 -20 -20 -20 -20 -20 -20 -20 -20 -20 -20 -20 -20 -20 9 -20 -20 4 -20 -9 -20 -20 -12 -20 -20 -20 -20 -20 -20 -20 -20 -20 -19 -20 -20 -20 -20 -20 -20
-20 -20 -9 -8 -20 -20 -20 -20 -20 -20 -20 -20 -20 -20 -20 -20 -20 -20 -20 -20 -20 -2 -20 -19 -20 -20 -20 -20 -20 -20 -20 -20 -20 -20 -16 -20 -20 -20 -20 -20 -20 -14 -20
-20 -17 14 -20 -20 -20 -20 -20 -20 -20 -20 -20 -20 -20 -20 -20 -20 -20 -11 5 -20 -20 -20 -20 -20 -20 -20 -20 -20 -20 -20 -20 -20 -20 -10 -16 -16 -20 10 -4 13 -20 -8
-19 10 -10 -20 -20 -20 -20 -20 -20 -20 -20 -20 -20 -20 -20 -20 -20 -20 -20 -12 -20 -20 -20 -20 -20 -20 -20 -20 -20 -20 -19 -5 1 -20 -12 11 11 -20 -8 -1 11 13 -20
4 -2 -20 -20 -20 -20 -20 -20 -20 -20 -20 -20 -20 -20 -20 -19 -20 -20 -20 -20 -20 -20 -20 -20 -20 -20 -20 -20 -20 -20 -19 0 8 15 -17 12 -13 6 16 18 18 15 13
-6 -20 -20 -20 -20 -18 -3 -15 -20 -20 -20 -20 -20 -20 4 6 -20 -20 -20 -20 -20 -20 -20 -20 -20 -20 -20 -20 -20 -20 -20 -20 -14 -13 9 15 12 10 2 -0 5 17 16
-18 3 -19 -20 -20 -9 -7 -20 -20 -20 -20 -20 -13 -20 7 -20 -20 -20 -20 -20 -20 -20 -20 -20 -20 -20 -20 -20 -20 -20 -20 -20 -20 -15 -12 -14 -17 -20 -3 -3 -4 -2 -5
-2 -20 -20 -8 10 -17 -20 -20 -20 -20 -20 -20 -20 6 4 -20 -20 -20 -20 -20 -20 -20 -20 -20 -20 -20 -20 -20 -20 -20 -20 -20 -20 -20 -20 -20 -20 -20 -20 -7 7 15 15
-2 -1 14 0 -20 -20 -20 -20 -20 -20 -20 -20 -20 -20 -16 -20 -20 -20 -20 -20 -20 -20 -20 -20 -20 -20 -20 -20 -20 -20 -19 -13 -20 -20 -18 -10 -11 -16 11 10 15 18 13
-8 0 13 -2 -6 -20 -20 -20 -20 -20 -20 -20 -18 -17 -6 -20 -2 -20 -20 -20 -20 -20 -20 -20 -20 -20 -20 -20 -20 -20 -10 -20 -20 -5 5 5 5 4 -2 -2 9 16 14
25 15 10 2 -20 -20 -20 -19 -20 -20 -8 -20 -1 -20 -20 -19 -20 -20 -20 -20 -20 -20 -5 -20 -20 -20 -20 -20 -20 -20 -20 -20 -7 4 8 6 1 2 0 5 12 16 20
-3 10 6 -10 -20 -13 -11 -16 -20 -20 -6 2 -20 8 10 9 0 -20 -20 -20 -20 -13 -17 -19 -20 -20 -20 -20 -20 -20 -20 -20 -20 -0 6 3 3 3 3 8 -1 5 20
5 3 -3 -16 -8 -8 -14 -20 -20 -20 4 -15 -20 3 5 -2 6 9 -14 -20 -19 -13 -16 -4 -20 -20 -20 -20 -20 -20 -20 -20 -20 -20 -1 4 3 5 0 5 10 5 8
3 -2 2 -1 -9 -15 -20 -20 -20 -20 -10 2 -7 4 12 4 -2 -8 -0 8 -3 1 -20 -20 -17 -3 -0 -2 -16 -20 -20 -20 -20 -20 -20 -16 -11 -10 4 2 8 7 6
-2 -7 -19 -20 -20 -20 -20 -20 -20 -20 -20 -20 -20 -20 -20 -20 -20 -20 -20 -20 -20 -20 -20 -20 -2 5 4 4 -1 -2 -5 -20 -20 -20 -20 -20 -20 -20 -10 3 4 6 6
-20 -20 -20 -20 -20 -20 -9 5 6 -11 -20 -20 -20 -20 -20 -20 -20 -20 -20 -20 -20 -20 -4 -5 2 7 5 -2 -3 -20 -20 -20 -20 -20 -20 -20 -20 -20 -17 -0 -2 4 -0
-20 -20 -20 -20 -20 -19 -0 3 8 11 12 12 -14 -20 -20 -20 -20 -20 -12 -14 8 -6 -7 -2 -1 5 3 -1 -20 -20 -16 -0 0 -19 -19 -3 -2 -3 -5 -20 -8 -20 -20
-20 -20 -20 -20 -2 -3 -16 -20 8 9 11 -3 13 -13 -20 -20 -20 -20 -20 10 7 8 6 7 7 2 -2 -1 -2 -1 -9 -1 -1 -11 -1 -7 1 0 -4 -20 -7 -11 -20
-16 -20 -4 -20 -20 -5 1 -13 3 11 14 12 12 8 5 1 1 2 3 8 9 10 7 -17 3 -2 -1 0 3 5 3 2 1 -2 -3 -2 1 -1 -1 -20 -20 -20 -20
6 15 -20 -16 7 9 9 11 11 14 14 10 10 11 -8 -19 12 14 11 12 9 8 6 -18 9 8 6 5 0 -0 1 1 -1 -5 -1 -1 -20 -1 1 -1 -20 -20 -20
10 -0 13 16 16 18 13 14 13 -3 10 13 11 14 -19 -20 -19 -2 9 9 -5 4 11 6 2 9 -2 3 -6 3 2 3 2 2 1 -20 -18 -4 -0 -1 -2 -20 -20
4 -4 11 17 7 -1 14 14 13 14 14 11 9 14 19 13 2 -17 -20 -12 5 7 -3 7 8 -6 -13 -2 -4 -0 -2 -3 -3 1 -2 -20 -20 -3 -2 -0 -9 -5 -20
0 15 16 -0 8 -1 6 2 17 13 18 11 9 10 11 15 15 6 3 -2 0 -3 5 6 -2 -20 -20 5 -9 -20 -3 -19 -15 -7 -20 -20 -20 -20 -18 -20 -20 -20 -20
11 13 5 2 13 9 12 14 16 14 17 15 6 9 15 14 14 10 9 8 3 2 1 14 8 -5 5 3 -4 -20 -20 -20 -20 -20 -7 -20 -20 -20 -20 -20 -20 -20 -20
9 13 14 19 14 15 15 12 11 14 14 14 17 18 9 -12 -2 10 12 -2 10 7 0 -1 15 4 4 13 -4 -9 -20 -20 -20 -20 -20 -20 -20 -20 -20 -20 -20 -20 -20

GFSGL_prec_radar_036.txt.gz
Reflectivity
-20 -20 -20 -20 -20 -20 -18 1 0 2 -20 -20 -20 -20 -20 -20 -20 -20 -20 -20 -20 -20 -20 -20 -20 -20 -20 -20 -20 -20 -20 -20 -20 -20 -20 -20 -20 -20 -20 -20 -20 -20 -20
-20 -20 -20 -17 3 5 -20 7 -4 -20 -20 -20 -20 -20 -20 -20 -20 -20 -20 -20 -20 -20 -20 -20 -20 -20 -20 -20 -20 -20 -20 -20 -20 -20 -20 -20 -20 -20 -20 -20 -20 -20 -20
-20 -20 -20 -20 9 16 -20 5 -18 -20 -20 -20 -20 -20 -20 -20 -20 -20 -20 -20 -20 -20 -20 -20 -20 -20 -20 -20 -20 -20 -20 -20 -20 -20 -20 -20 -20 -20 -20 -18 -20 -20 -20
-20 -20 -20 -20 23 -7 0 -6 -20 -20 -20 -20 -20 -20 -20 -17 -20 -20 -20 -20 -20 -20 -20 -20 -20 -20 -20 -20 -20 -20 -20 -20 -20 -20 -20 -20 -20 -20 2 -20 1 -20 -20
-20 -20 -15 3 18 -19 -16 -8 -20 -20 -20 -20 -20 -20 -20 -20 -20 -20 -20 -20 -20 -20 -20 -20 -20 -20 -20 -20 -20 -20 -20 -20 -20 -20 -20 -20 -20 -20 -20 1 -19 -20 -20
-20 -18 3 14 -19 9 12 -20 -20 -16 -9 -20 -20 -20 -20 -20 -20 -20 -20 -20 -20 -20 -20 -20 -20 -20 -20 -20 -20 -20 -20 -20 -20 -20 -20 -20 -20 8 7 -20 -18 -20 -20
-20 -15 -5 -17 8 3 -20 -20 -18 -13 -3 -4 -20 -20 -20 -20 -20 -20 -20 -20 -20 -20 -20 -20 -20 -20 -20 -20 -20 -20 -20 -20 -11 -10 -14 2 11 -20 -20 -20 -20 -20 -20
-17 0 15 26 -1 -19 -20 -11 1 7 -8 -20 -20 -20 -16 -20 -20 -20 -20 -20 -20 -20 -20 -20 -20 -20 -20 -20 -20 -20 -20 -20 -20 -20 -20 -20 -20 -20 -20 -20 -20 -20 -20
-10 5 3 4 -8 13 6 -1 -1 -4 -5 -1 -16 -19 -20 -20 -20 -20 -20 -20 -20 -20 -20 -20 -20 -20 -20 -20 -20 -20 -20 -20 -20 -20 -20 -20 -20 -20 -3 0 -16 1 -4
1 -2 6 10 21 22 13 -8 -8 -2 -1 -17 -20 -20 -20 -20 -20 -20 -20 -20 -20 -20 -20 -20 -20 -20 -20 -20 -20 -20 -20 -20 -20 -20 -20 -20 -20 -20 9 6 5 6 -10
16 8 16 17 26 13 5 1 -4 -14 -20 -20 -20 -20 -20 -20 -20 -20 -20 -20 -20 -20 -20 -20 -20 -20 -20 -20 -20 -20 -20 -20 -20 -20 -15 -20 -0 -13 -20 -20 -20 2 8
10 21 16 18 21 16 13 8 -3 -20 -20 -20 -20 -20 -20 -20 -20 -20 -20 -20 -20 -20 -20 -20 -20 -20 -20 -20 -20 -20 -20 -20 -20 -20 -20 -20 -7 -13 -11 -20 -20 -20 -14
20 19 14 12 7 4 0 -8 -17 -19 -20 -20 -20 -20 -20 -20 -20 -20 -20 -20 -20 -20 -20 -20 -20 -20 -20 -20 -20 -20 -20 -20 -20 -20 -20 -20 -20 -15 -8 -19 -20 -20 -20
9 5 4 -0 -9 -13 -10 -10 -17 -20 -20 -20 -20 -17 -20 -18 -20 -20 -20 -20 -20 -20 -20 -20 -20 -20 -20 -20 -20 -20 -20 -20 -20 -20 -20 -20 -20 -20 -20 -20 -20 -20 -20
-20 -19 -8 -4 -3 -11 -20 -20 -20 -20 -20 -20 -20 5 -4 1 -18 -19 -20 -20 -18 -12 -20 -20 -20 -20 -20 -20 -20 -20 -20 -20 -20 -20 -20 -20 -20 -20 -20 -20 -20 -20 -20
-20 -19 -20 -20 -20 -20 -20 -20 -20 -20 -20 -20 -20 -20 -20 -20 -20 -20 -17 -20 -20 -20 -20 -20 -20 -20 -7 -20 -20 -20 -20 -20 -20 -20 -20 -20 -16 -20 -20 -20 -13 4 -6
-20 -20 -20 -20 -20 -20 -20 -20 -20 -20 -20 -20 -20 -20 -19 -20 -20 -20 -20 -20 -20 -20 -20 -20 -20 -20 4 -20 -20 -20 -20 -20 -20 -20 -20 -20 -20 -20 -20 -20 -20 -19 -20
-20 -20 -20 -20 -20 -20 -20 -20 -20 -20 -20 -20 -20 -20 -19 -20 -18 -20 -20 -18 -13 -20 -20 -20 -20 -9 -6 -20 -20 -20 -20 -20 -20 -20 -20 -20 -20 -20 -20 -6 -20 -20 -20
-20 -20 -20 -20 -10 -20 -18 -20 -20 -20 -20 -20 -20 -20 -20 -20 -20 -20 -20 -20 -20 -20 -20 -20 -20 -20 -20 -20 -20 -20 -20 -20 -20 -20 -20 -20 -20 -20 -20 -6 -20 -20 -20
-20 -20 -4 10 17 10 -17 1 -20 -20 -20 -20 -20 -20 -18 3 -14 -20 -20 -20 -20 -20 -20 6 -20 -8 -3 -18 -20 -20 -20 -20 -20 -20 -20 -20 -20 -20 -20 -20 -20 -20 -20
-1 -20 -9 0 17 15 18 17 15 12 9 8 -20 -17 -19 14 12 8 -20 -20 -20 -20 -20 -20 -20 -20 -20 -7 -20 -20 -10 -20 -20 -20 -20 -20 -20 -20 -20 -20 -20 -20 -20
-20 9 5 7 6 -3 9 8 -5 -3 6 10 -20 -20 -14 9 -18 -10 -2 3 1 -20 -20 -20 -20 -20 -20 -4 -15 -20 -20 -20 -20 -20 -20 -20 -20 -20 -20 -20 -20 -20 -20
-11 7 9 -10 -15 -20 -2 -20 -20 -20 0 0 9 -10 1 -9 11 5 -16 1 7 5 -19 -20 -12 -20 -20 -20 -20 -20 -20 -20 -20 -20 -20 -20 -20 -20 -20 -20 -20 -20 -20
-18 -19 2 -15 15 4 -10 -19 0 -20 8 8 18 1 2 -7 -0 16 22 -1 1 -17 -20 -3 -9 -20 -20 -20 -20 -20 -20 -20 -20 -20 -20 -20 -20 -20 -20 -20 -20 -20 -20
3 -2 -3 12 -2 17 11 11 8 12 5 -1 8 16 17 5 -18 -20 -12 18 24 15 -5 -20 -20 -8 -3 -0 -1 -3 -20 -20 -20 -20 -20 -20 -20 -20 -20 -20 -20 -20 -20
1 -3 20 16 10 20 26 4 -4 -6 -13 -7 -6 -5 -8 -7 3 21 17 -16 -9 -18 -16 1 -2 -10 -18 -18 -9 9 -6 -15 -12 -13 -20 -20 -20 -20 -20 -20 -20 -20 -20

GFSGL_prec_radar_039.txt.gz
Reflectivity
-20 -20 -20 -20 -17 -19 3 -13 -17 15 20 5 -4 6 -20 -20 -20 -20 -20 -20 -20 -20 -20 -20 -20 -20 -20 -20 -20 -20 -20 -20 -20 -20 -20 -20 -20 -20 -20 -20 -20 -20 -20
-20 -20 -20 -20 -20 -9 -18 -16 4 0 12 -19 -20 -20 -20 -20 -20 -20 -20 -20 -20 -20 -20 -20 -20 -20 -20 -20 -20 -20 -20 -20 -20 -20 -20 -20 -20 -20 -20 -20 -20 -20 -20
-20 -20 -20 -20 -15 -20 -19 14 -20 -10 -20 -20 -17 7 -20 -20 -20 -20 -20 -20 -20 -20 -20 -20 -20 -20 -20 -20 -20 -20 -20 -20 -20 -20 -20 -20 -20 -20 -20 -20 -20 -20 -20
-20 -20 -20 -20 -20 -19 -1 -8 0 -20 -20 1 12 -20 -20 -20 -19 -5 -14 -20 -20 -20 -20 -20 -20 -20 -20 -20 -20 -20 -20 -20 -20 -20 -20 -20 -20 -20 -20 -20 -10 -20 -20
-20 -20 -20 -20 -19 -20 -5 -12 -3 -15 -19 -9 -20 -20 -20 -20 -16 -19 -20 -20 -20 -20 -20 -20 -20 -20 -20 -20 -20 -20 -20 -20 -20 -20 -20 -20 -20 -20 -20 4 -20 -20 -20
-20 -20 -20 -20 -19 2 -18 4 2 -20 -14 6 7 -8 -14 -20 -10 -11 -20 -20 -20 -20 -20 -20 -20 -20 -20 -20 -20 -20 -20 -20 -20 -20 -20 -20 -20 4 10 -20 -20 -20 -20
16 -20 -18 -20 -20 -18 11 1 -2 -5 6 -10 1 10 13 9 -11 -20 -20 -20 -20 -20 -20 -20 -20 -20 -20 -20 -20 -20 -20 -20 -20 -20 -20 -16 -20 -20 -20 -20 -20 -20 -20
-20 -19 5 -5 1 14 -2 1 14 8 11 9 -6 -7 -5 -10 -20 -20 -20 -20 -20 -20 -20 -20 -20 -20 -20 -20 -20 -20 -20 -20 -20 -20 -20 -20 -20 -20 -17 -14 -20 -20 -20
-20 -20 -19 -16 4 2 17 9 10 7 -1 -13 -17 -9 -18 -20 -20 -20 -20 -20 -3 -20 -20 -20 -20 -20 -20 -20 -20 -20 -20 -20 -20 -20 -20 -20 -20 -20 -17 9 4 -5 -20
-20 -15 4 12 22 13 20 11 1 1 -10 -16 -20 -20 -20 -20 -20 -20 -20 -20 -20 -20 -20 -20 -20 -20 -20 -20 -20 -20 -20 -20 -20 -20 -20 -20 -20 -20 -20 -20 -20 -20 -20
8 18 20 19 7 4 -5 -12 -20 -20 -20 -20 -17 -19 -20 -20 -20 -20 -20 -20 -20 -20 -20 -20 -20 -20 -20 -20 -20 -20 -20 -20 -20 -20 -20 -20 -20 -20 -20 -20 -20 -20 -10
19 6 -19 -20 -20 -20 -20 -20 -20 -20 -20 -20 -20 -20 -20 -20 -20 -20 -20 -20 -20 -20 -20 -20 -20 -20 -20 -20 -20 -20 -20 -20 -20 -20 -20 -20 -20 -20 -20 -20 -20 -20 -20
-20 -20 -20 -20 -20 -20 -20 -20 -20 -20 -20 -20 -20 -20 -20 -20 -20 -20 -20 -20 -20 -20 -20 -20 -20 -20 -20 -20 -20 -20 -20 -20 -20 -20 -20 -20 -20 -20 -20 -20 -20 -20 -20
-20 -20 -20 -20 -20 -20 -20 -20 -20 -20 -20 -20 -20 -20 -20 -20 -20 -17 -20 -20 -20 -20 -20 -20 -20 -20 -20 -20 -20 -20 -20 -20 -20 -20 -20 -20 -20 -20 -20 -20 -20 -20 -20
-20 -20 -20 -20 -20 -20 -20 -20 -20 -20 -20 -20 -20 -20 -20 -20 -16 -3 -1 8 -17 -20 -20 -20 -20 -20 -20 -20 -20 -20 -20 -20 -20 -20 -20 -20 -20 -20 -20 -20 -20 -20 -20
-20 -20 -20 -20 -20 -20 -20 -20 -20 -20 -20 -20 -20 -20 -20 -20 -20 -19 -19 -20 -20 -20 -20 -20 -20 -20 -20 -20 -20 -20 -20 -20 -20 -20 -20 -20 -20 -20 -20 -20 -20 -20 -20
-20 -20 -20 -20 -20 -20 -20 -20 -20 -20 -20 -20 -20 -20 -20 -20 -20 -5 -4 -12 -20 4 -17 -20 -20 -20 -20 -20 -20 -20 -20 -20 -20 -20 -20 -20 -20 -20 -20 -20 -20 -20 -20
-20 -20 -20 -20 -20 -20 -20 -20 -20 -17 -3 -20 -20 -20 -20 -20 -20 -4 -20 25 8 4 -20 -20 -20 -20 -20 -20 -20 -20 -20 -20 -20 -20 -20 -20 -20 -20 -20 -20 -20 -20 -20
-20 -20 -20 -20 -20 0 -5 6 11 8 23 -20 -20 -20 -20 -20 -20 -12 9 14 -8 -20 -20 -20 -20 -20 -20 -20 -20 -20 -20 -20 -20 -20 -20 -20 -20 -20 -20 -20 -20 -20 -20
-20 -20 -20 -20 -20 -20 -5 -8 9 9 16 -10 -11 -19 -20 -20 3 4 -19 -18 1 -20 -20 -20 -20 -20 -20 -20 -20 -20 -20 -20 -20 -20 -20 -20 -20 -20 -20 -20 -20 -20 -20
-20 -20 -10 -20 -6 5 2 3 10 -16 9 14 -20 -20 -20 -3 4 -20 -18 -20 -15 3 -15 -20 -20 -20 -20 -20 -10 -20 -20 -20 -20 -20 -20 -20 -20 -20 -20 -20 -20 -20 -20
-18 -20 -20 -20 -20 -19 -4 2 15 16 -4 -20 -20 -20 -20 -20 8 -20 -19 -20 -20 -10 -1 -5 -20 -20 -20 -20 -20 -20 -20 -20 -20 -20 -20 -20 -20 -20 -20 -20 -20 -20 -20
-20 -20 -20 -20 -20 -16 -4 -6 13 10 -17 -20 -20 -20 -20 -5 18 -20 -18 -20 0 16 9 -19 -20 -20 -20 -20 -20 -20 -20 -20 -20 -20 -20 -20 -20 -20 -20 -20 -20 -20 -20
-19 4 -7 -20 -19 7 13 0 -17 -18 13 -0 -16 -17 -6 10 20 10 -9 -10 -20 -11 11 19 7 -18 -20 -20 -20 -20 -20 -20 -20 -20 -20 -20 -20 -20 -20 -20 -20 -20 -20
-19 -20 -20 -20 -20 -20 -19 -10 12 25 23 14 -19 -20 -20 -20 -20 -8 -14 9 13 -2 -8 -1 8 5 -20 -4 -16 -20 -20 -20 -17 -20 -20 -20 -20 -20 -20 -20 -20 -20 -20
-20 -8 -20 -20 -20 -20 -6 -19 -4 1 12 15 -8 -20 -20 -15 -12 -10 -18 -11 6 3 19 -4 -8 -6 -16 -20 -14 -9 -17 -15 10 -11 -20 -20 -20 -20 -20 -20 -20 -20 -20

GFSGL_prec_radar_042.txt.gz
Reflectivity
-20 4 13 11 15 -4 11 12 11 -4 26 -7 16 1 -20 -20 -20 -20 -20 -20 -20 -20 -20 -20 -20 -20 -20 -20 -20 -20 -20 -20 -20 -20 -20 -20 -20 -20 -20 -20 -20 -20 -20
15 -8 -20 -20 -20 -12 -12 -20 18 27 -16 -14 -17 -20 -20 -20 -20 -20 -20 -20 -20 -20 -20 -20 -20 -20 -20 -20 -20 -20 -20 -20 -20 -20 -20 -20 -20 -20 -20 -20 -20 -20 -20
-19 -20 -20 -16 12 -6 -4 8 -20 -20 -20 -20 -20 -20 -20 -20 -20 -20 -20 -20 -20 -20 -20 -20 -20 -20 -20 -20 -20 -20 -20 -20 -20 -20 -20 -20 -20 -20 -20 -20 -20 -20 -20
-5 -7 6 -16 9 -7 -18 -20 -20 -20 -20 -20 -20 -20 -20 -20 -20 -20 -20 -20 -20 -20 -20 -20 -20 -20 -20 -20 -20 -20 -20 -20 -20 -20 -20 -20 -20 -20 -20 -20 -18 -20 -20
-18 4 4 -9 -14 -18 -20 -20 -20 -18 -20 -20 -20 -7 -7 -20 -20 -20 -20 -19 -20 -20 -20 -20 -20 -20 -20 -20 -20 -20 -20 -20 -20 -20 -20 -20 -20 -20 -20 -20 -16 -20 -20
-18 14 17 -15 -20 -20 -11 -20 1 -10 12 -3 13 -20 -20 -20 -20 -19 -11 -4 -13 -20 -20 -20 -20 -20 -20 -20 -20 -20 -20 -20 -20 -20 -20 -20 -20 -20 -20 -20 -20 -20 -20
-19 -20 -20 -20 -20 -19 -20 -2 15 16 17 0 -20 -20 -20 -20 -15 -20 -20 -20 -20 -19 -20 -20 -20 -20 -20 -20 -20 -20 -20 -20 -20 -20 -20 -20 -20 -20 -20 -20 -20 -20 -20
-20 -20 -20 -20 -20 -19 24 31 35 23 11 0 -20 -20 -20 -20 -20 -20 -20 -20 -20 -20 -20 -20 -19 -20 -20 -20 -20 -20 -20 -20 -20 -20 -20 -20 -20 -20 -3 -7 4 6 -7
-16 -20 -20 -8 23 28 36 14 1 -10 -20 -20 -20 -20 -20 -20 -20 -20 -20 -20 -19 -20 -20 -20 -20 -20 -20 -20 -20 -20 -20 -20 -20 -20 -20 -20 -20 -20 -20 0 -20 -20 -20
-20 -20 12 10 27 -20 -20 -20 -20 -20 -20 -20 -20 -20 -20 -20 -20 -20 -20 -20 -20 -20 -20 -20 -20 -20 -20 -20 -20 -20 -20 -20 -20 -20 -20 -20 -20 -20 -20 -20 -20 -1 0
19 19 33 15 -6 -20 -20 -20 -20 -20 -20 -20 -20 -20 -20 -20 -20 -20 -20 -20 -20 -20 -20 -20 -20 -20 -20 -20 -20 -20 -20 -20 -20 -20 -20 -20 -20 -20 -20 -20 -20 -20 -17
-6 -17 -20 -20 -20 -20 -20 -20 -20 -20 -20 -20 -20 -20 -20 -20 -20 -20 -20 -20 -20 -20 -20 -20 -20 -20 -20 -20 -20 -20 -20 -20 -20 -20 -20 -20 -20 -20 -20 -20 -20 -20 -20
-20 -20 -20 -20 -20 -20 -20 -20 -20 -20 -20 -20 -20 -20 -20 -20 -20 -20 -20 -20 -20 -20 -20 -20 -20 -20 -20 -20 -20 -20 -20 -20 -20 -20 -20 -20 -20 -20 -20 -20 -20 -20 -20
-20 -20 -20 -20 -20 -20 -20 -20 -20 -20 -20 -20 -20 -20 -20 -20 -20 -20 -20 1 -20 17 -17 -17 -18 -20 -20 -20 -20 -20 -20 -20 -20 -20 -20 -20 -20 -20 -20 -20 -20 -20 -20
-20 -20 -20 -20 -20 -20 -20 -20 -20 -20 -20 -20 -20 -20 -20 -20 -20 -20 -20 -20 -20 -20 -12 4 3 -20 -20 -20 -20 -20 -20 -20 -20 -20 -20 -20 -20 -20 -20 -20 -20 -20 -20
-20 -20 -20 -20 -20 -20 -20 -20 -20 -20 -20 -20 -20 -20 -20 -20 -20 -20 -20 -20 -5 5 9 -20 -20 -20 -20 -20 -20 -20 -20 -20 -20 -20 -20 -20 -20 -20 -20 -20 -20 -20 -20
-20 -20 -20 -20 -20 -20 -20 -20 -20 -20 -20 -20 8 0 31 1 -20 -20 -20 -20 -7 8 18 -20 -20 -20 -20 -20 -20 -20 -20 -20 -20 -20 -20 -20 -20 -20 -20 -20 -20 -20 -20
-20 -20 -20 -20 -20 -20 -20 -20 -17 -20 -20 -20 -20 10 31 10 17 -20 -20 -19 6 1 7 -3 -20 -20 -20 -20 -20 -20 -20 -20 -20 -20 -20 -20 -20 -20 -20 -20 -20 -20 -20
-20 -20 -20 -20 -20 -20 -20 -3 3 7 9 9 -3 -20 -20 6 -14 -20 -20 -20 -10 -10 -20 -20 -20 -20 -20 -20 -20 -20 -20 -20 -20 -20 -20 -20 -20 -20 -20 -20 -20 -20 -20
-20 -20 -20 -20 -20 -20 -20 -18 -16 -11 6 10 -9 -20 -20 -20 -20 -20 -20 -20 -15 -15 -20 -20 -10 -4 -20 -20 -20 -20 -20 -20 -20 -20 -20 -20 -20 -20 -20 -20 -20 -20 -20
-20 -20 -20 -20 -20 -5 -20 -19 -19 1 4 -5 0 18 -16 -20 -20 -20 -20 -20 -20 -20 -20 -20 -20 -4 -20 -20 -20 -20 -20 -20 -20 -20 -20 -20 -20 -20 -20 -20 -20 -20 -20
-20 -20 -20 5 4 -6 -20 1 3 -1 9 8 -19 -6 -20 -20 -20 -20 -20 -17 -17 -20 -20 -16 -19 5 -20 -20 -20 -20 -20 -20 -20 -20 -20 -20 -20 -20 -20 -20 -20 -20 -20
-12 -20 -20 -20 -20 -20 -20 -20 -19 -20 -5 7 14 24 -1 -20 -20 -14 15 19 3 -17 -20 2 3 11 -15 -20 -20 -20 -20 -20 -20 -20 -20 -20 -20 -20 -20 -20 -20 -20 -20
-20 -14 -20 -20 -20 -20 -20 -20 -18 -20 -15 2 10 9 -5 -9 -20 -15 -20 -20 -20 -20 1 -8 -7 -3 17 -20 -20 -15 -18 -20 -20 -20 -20 -20 -20 -20 -20 -20 -20 -20 -20
-20 -18 -20 -20 -20 -20 -20 -20 -20 -20 -20 -17 -12 6 11 12 0 -20 -20 -20 -20 -20 -20 -20 6 9 7 5 -20 -20 -20 -18 -1 -19 -4 -20 -20 -20 -20 -20 -20 -20 -20
-20 -15 -20 -20 -20 -20 -20 -20 -20 -20 -20 -20 -20 -12 -11 -13 -5 -16 -20 -20 -20 -20 -20 -18 -6 -3 -4 -20 -20 -20 -17 -15 -13 -11 7 -9 -20 -20 -20 -20 -20 -20 -20